Time,TemperatureF,DewpointF,PressureIn,WindDirection,WindDirectionDegrees,WindSpeedMPH,WindSpeedGustMPH,Humidity,HourlyPrecipIn,Conditions,Clouds,dailyrainin,SolarRadiationWatts/m^2,SoftwareType,DateUTC
2013-02-28 00:00:00,41.4,33.8,29.70,WSW,257,2.0,15.0,74,0.00,,SKC,0.00,0.00,VWS V14.01,2013-02-28 05:00:00,
2013-02-28 00:05:00,41.3,33.7,29.71,WSW,256,4.0,11.0,74,0.00,,SKC,0.00,0.00,VWS V14.01,2013-02-28 05:05:00,
2013-02-28 00:10:00,41.1,33.8,29.71,West,261,5.0,11.0,75,0.00,,SKC,0.00,0.00,VWS V14.01,2013-02-28 05:10:00,
2013-02-28 00:15:00,41.1,33.5,29.71,West,267,5.0,11.0,74,0.00,,SKC,0.00,0.00,VWS V14.01,2013-02-28 05:15:00,
2013-02-28 00:20:00,41.1,33.5,29.71,West,263,2.0,11.0,74,0.00,,SKC,0.00,0.00,VWS V14.01,2013-02-28 05:20:00,
2013-02-28 00:25:00,41.0,33.7,29.71,West,264,4.0,11.0,75,0.00,,SKC,0.00,0.00,VWS V14.01,2013-02-28 05:25:00,
2013-02-28 00:30:00,40.7,33.4,29.70,WNW,285,3.0,11.0,75,0.00,,SKC,0.00,0.00,VWS V14.01,2013-02-28 05:30:00,
2013-02-28 00:31:00,40.7,33.4,29.70,WSW,257,1.0,3.0,75,0.00,,SKC,0.00,0.00,VWS V14.01,2013-02-28 05:31:00,
2013-02-28 00:35:00,40.5,33.2,29.70,West,275,2.0,6.0,75,0.00,,SKC,0.00,0.00,VWS V14.01,2013-02-28 05:35:00,
2013-02-28 00:36:00,40.5,33.2,29.70,West,275,0.0,6.0,75,0.00,,SKC,0.00,0.00,VWS V14.01,2013-02-28 05:36:00,
2013-02-28 00:40:00,40.5,33.2,29.70,WSW,244,5.0,7.0,75,0.00,,SKC,0.00,0.00,VWS V14.01,2013-02-28 05:40:00,
2013-02-28 00:41:00,40.5,33.2,29.70,WNW,291,5.0,9.0,75,0.00,,SKC,0.00,0.00,VWS V14.01,2013-02-28 05:41:00,
2013-02-28 00:42:00,40.4,33.1,29.70,West,263,6.0,9.0,75,0.00,,SKC,0.00,0.00,VWS V14.01,2013-02-28 05:42:00,
2013-02-28 00:45:00,40.6,32.6,29.70,WSW,248,2.0,9.0,73,0.00,,SKC,0.00,0.00,VWS V14.01,2013-02-28 05:45:00,
2013-02-28 00:46:00,40.6,32.6,29.70,WSW,248,2.0,9.0,73,0.00,,SKC,0.00,0.00,VWS V14.01,2013-02-28 05:46:00,
2013-02-28 00:47:00,40.5,32.5,29.70,WSW,256,1.0,9.0,73,0.00,,SKC,0.00,0.00,VWS V14.01,2013-02-28 05:47:00,
2013-02-28 00:50:00,40.5,32.5,29.71,West,269,2.0,9.0,73,0.00,,SKC,0.00,0.00,VWS V14.01,2013-02-28 05:50:00,
2013-02-28 00:51:00,40.5,32.5,29.71,West,269,3.0,9.0,73,0.00,,SKC,0.00,0.00,VWS V14.01,2013-02-28 05:51:00,
2013-02-28 00:52:00,40.5,32.2,29.71,West,267,3.0,9.0,72,0.00,,SKC,0.00,0.00,VWS V14.01,2013-02-28 05:52:00,
2013-02-28 00:56:00,40.6,32.3,29.70,WNW,285,4.0,9.0,72,0.00,,SKC,0.00,0.00,VWS V14.01,2013-02-28 05:56:00,
2013-02-28 00:57:00,40.5,32.2,29.70,West,267,1.0,9.0,72,0.00,,SKC,0.00,0.00,VWS V14.01,2013-02-28 05:57:00,
2013-02-28 01:01:00,40.5,31.9,29.71,WSW,255,2.0,9.0,71,0.00,,SKC,0.00,0.00,VWS V14.01,2013-02-28 06:01:00,
2013-02-28 01:02:00,40.4,31.8,29.71,West,273,4.0,6.0,71,0.00,,SKC,0.00,0.00,VWS V14.01,2013-02-28 06:02:00,
2013-02-28 01:06:00,40.4,31.8,29.71,NW,305,5.0,11.0,71,0.00,,SKC,0.00,0.00,VWS V14.01,2013-02-28 06:06:00,
2013-02-28 01:07:00,40.5,31.9,29.71,West,260,4.0,11.0,71,0.00,,SKC,0.00,0.00,VWS V14.01,2013-02-28 06:07:00,
2013-02-28 01:12:00,40.5,31.9,29.70,WNW,284,5.0,11.0,71,0.00,,SKC,0.00,0.00,VWS V14.01,2013-02-28 06:12:00,
2013-02-28 01:17:00,40.4,31.8,29.70,WNW,284,7.0,11.0,71,0.00,,SKC,0.00,0.00,VWS V14.01,2013-02-28 06:17:00,
2013-02-28 01:22:00,40.4,31.8,29.70,West,273,7.0,11.0,71,0.00,,SKC,0.00,0.00,VWS V14.01,2013-02-28 06:22:00,
2013-02-28 01:27:00,40.3,31.7,29.71,WNW,282,9.0,11.0,71,0.00,,SKC,0.00,0.00,VWS V14.01,2013-02-28 06:27:00,
2013-02-28 01:28:00,40.3,31.7,29.71,West,269,6.0,11.0,71,0.00,,SKC,0.00,0.00,VWS V14.01,2013-02-28 06:28:00,
2013-02-28 01:32:00,40.3,31.7,29.71,West,279,1.0,4.0,71,0.00,,SKC,0.00,0.00,VWS V14.01,2013-02-28 06:32:00,
2013-02-28 01:33:00,40.2,31.9,29.71,West,263,3.0,4.0,72,0.00,,SKC,0.00,0.00,VWS V14.01,2013-02-28 06:33:00,
2013-02-28 01:37:00,40.1,31.8,29.71,SSW,203,0.0,7.0,72,0.00,,SKC,0.00,0.00,VWS V14.01,2013-02-28 06:37:00,
2013-02-28 01:38:00,40.1,31.8,29.71,SSW,203,0.0,7.0,72,0.00,,SKC,0.00,0.00,VWS V14.01,2013-02-28 06:38:00,
2013-02-28 01:43:00,40.1,31.8,29.70,SW,223,3.0,7.0,72,0.00,,SKC,0.00,0.00,VWS V14.01,2013-02-28 06:43:00,
2013-02-28 01:48:00,39.9,32.0,29.70,SSW,204,8.0,10.0,73,0.00,,SKC,0.00,0.00,VWS V14.01,2013-02-28 06:48:00,
2013-02-28 01:53:00,40.0,32.4,29.70,South,189,4.0,10.0,74,0.00,,SKC,0.00,0.00,VWS V14.01,2013-02-28 06:53:00,
2013-02-28 01:58:00,39.9,32.3,29.70,SW,229,3.0,10.0,74,0.00,,SKC,0.00,0.00,VWS V14.01,2013-02-28 06:58:00,
2013-02-28 02:03:00,39.9,32.0,29.70,WSW,245,4.0,5.0,73,0.00,,SKC,0.00,0.00,VWS V14.01,2013-02-28 07:03:00,
2013-02-28 02:08:00,39.9,32.0,29.70,WSW,244,1.0,5.0,73,0.00,,SKC,0.00,0.00,VWS V14.01,2013-02-28 07:08:00,
2013-02-28 02:09:00,39.8,31.9,29.70,WSW,244,0.0,5.0,73,0.00,,SKC,0.00,0.00,VWS V14.01,2013-02-28 07:09:00,
2013-02-28 02:13:00,39.8,31.5,29.70,SW,220,0.0,5.0,72,0.00,,SKC,0.00,0.00,VWS V14.01,2013-02-28 07:13:00,
2013-02-28 02:15:00,39.7,31.4,29.70,West,277,2.0,5.0,72,0.00,,SKC,0.00,0.00,VWS V14.01,2013-02-28 07:15:00,
2013-02-28 02:18:00,39.8,31.2,29.70,WSW,258,4.0,7.0,71,0.00,,SKC,0.00,0.00,VWS V14.01,2013-02-28 07:18:00,
2013-02-28 02:19:00,39.8,31.2,29.70,SW,233,6.0,7.0,71,0.00,,SKC,0.00,0.00,VWS V14.01,2013-02-28 07:19:00,
2013-02-28 02:20:00,39.8,30.8,29.70,West,281,3.0,9.0,70,0.00,,SKC,0.00,0.00,VWS V14.01,2013-02-28 07:20:00,
2013-02-28 02:23:00,39.9,30.9,29.69,WSW,247,4.0,9.0,70,0.00,,SKC,0.00,0.00,VWS V14.01,2013-02-28 07:23:00,
2013-02-28 02:24:00,39.9,30.9,29.69,WSW,246,4.0,9.0,70,0.00,,SKC,0.00,0.00,VWS V14.01,2013-02-28 07:24:00,
2013-02-28 02:25:00,39.8,30.8,29.70,West,281,2.0,9.0,70,0.00,,SKC,0.00,0.00,VWS V14.01,2013-02-28 07:25:00,
2013-02-28 02:28:00,39.8,30.5,29.70,WSW,251,13.0,17.0,69,0.00,,SKC,0.00,0.00,VWS V14.01,2013-02-28 07:28:00,
2013-02-28 02:29:00,39.8,30.1,29.70,West,279,10.0,17.0,68,0.00,,SKC,0.00,0.00,VWS V14.01,2013-02-28 07:29:00,
2013-02-28 02:30:00,39.9,29.9,29.70,WSW,246,3.0,17.0,67,0.00,,SKC,0.00,0.00,VWS V14.01,2013-02-28 07:30:00,
2013-02-28 02:34:00,40.0,29.9,29.70,NNW,336,3.0,9.0,67,0.00,,SKC,0.00,0.00,VWS V14.01,2013-02-28 07:34:00,
2013-02-28 02:35:00,39.9,29.9,29.69,West,277,4.0,11.0,67,0.00,,SKC,0.00,0.00,VWS V14.01,2013-02-28 07:35:00,
2013-02-28 02:39:00,39.9,29.9,29.70,West,274,1.0,11.0,67,0.00,,SKC,0.00,0.00,VWS V14.01,2013-02-28 07:39:00,
2013-02-28 02:40:00,39.9,29.9,29.70,West,265,6.0,11.0,67,0.00,,SKC,0.00,0.00,VWS V14.01,2013-02-28 07:40:00,
2013-02-28 02:44:00,39.9,29.5,29.70,West,264,4.0,11.0,66,0.00,,SKC,0.00,0.00,VWS V14.01,2013-02-28 07:44:00,
2013-02-28 02:45:00,39.9,29.5,29.70,West,268,5.0,11.0,66,0.00,,SKC,0.00,0.00,VWS V14.01,2013-02-28 07:45:00,
2013-02-28 02:49:00,39.9,29.5,29.70,West,271,9.0,14.0,66,0.00,,SKC,0.00,0.00,VWS V14.01,2013-02-28 07:49:00,
2013-02-28 02:50:00,39.9,29.5,29.70,West,281,5.0,14.0,66,0.00,,SKC,0.00,0.00,VWS V14.01,2013-02-28 07:50:00,
2013-02-28 02:54:00,39.9,29.5,29.70,West,267,5.0,14.0,66,0.00,,SKC,0.00,0.00,VWS V14.01,2013-02-28 07:54:00,
2013-02-28 02:55:00,39.9,29.5,29.70,NW,309,5.0,14.0,66,0.00,,SKC,0.00,0.00,VWS V14.01,2013-02-28 07:55:00,
2013-02-28 02:59:00,39.8,29.0,29.69,West,266,7.0,14.0,65,0.00,,SKC,0.00,0.00,VWS V14.01,2013-02-28 07:59:00,
2013-02-28 03:00:00,39.7,29.3,29.69,NW,325,7.0,14.0,66,0.00,,SKC,0.00,0.00,VWS V14.01,2013-02-28 08:00:00,
2013-02-28 03:04:00,39.6,28.8,29.69,North,360,4.0,16.0,65,0.00,,SKC,0.00,0.00,VWS V14.01,2013-02-28 08:04:00,
2013-02-28 03:05:00,39.6,28.8,29.69,NW,325,7.0,16.0,65,0.00,,SKC,0.00,0.00,VWS V14.01,2013-02-28 08:05:00,
2013-02-28 03:06:00,39.6,28.8,29.69,WNW,289,10.0,16.0,65,0.00,,SKC,0.00,0.00,VWS V14.01,2013-02-28 08:06:00,
2013-02-28 03:09:00,39.5,28.7,29.70,NW,308,8.0,18.0,65,0.00,,SKC,0.00,0.00,VWS V14.01,2013-02-28 08:09:00,
2013-02-28 03:10:00,39.5,28.7,29.70,West,260,9.0,18.0,65,0.00,,SKC,0.00,0.00,VWS V14.01,2013-02-28 08:10:00,
2013-02-28 03:11:00,39.5,28.4,29.69,WNW,286,10.0,18.0,64,0.00,,SKC,0.00,0.00,VWS V14.01,2013-02-28 08:11:00,
2013-02-28 03:14:00,39.5,28.4,29.69,WNW,300,9.0,24.0,64,0.00,,SKC,0.00,0.00,VWS V14.01,2013-02-28 08:14:00,
2013-02-28 03:15:00,39.5,28.4,29.69,WNW,302,8.0,24.0,64,0.00,,SKC,0.00,0.00,VWS V14.01,2013-02-28 08:15:00,
2013-02-28 03:16:00,39.4,28.2,29.69,West,276,11.0,24.0,64,0.00,,SKC,0.00,0.00,VWS V14.01,2013-02-28 08:16:00,
2013-02-28 03:20:00,39.3,28.2,29.69,NNW,329,8.0,24.0,64,0.00,,SKC,0.00,0.00,VWS V14.01,2013-02-28 08:20:00,
2013-02-28 03:21:00,39.3,28.2,29.70,West,267,10.0,24.0,64,0.00,,SKC,0.00,0.00,VWS V14.01,2013-02-28 08:21:00,
2013-02-28 03:23:00,39.3,28.2,29.69,West,281,10.0,24.0,64,0.00,,SKC,0.00,0.00,VWS V14.01,2013-02-28 08:23:00,
2013-02-28 03:25:00,39.3,28.2,29.70,West,268,10.0,24.0,64,0.00,,SKC,0.00,0.00,VWS V14.01,2013-02-28 08:25:00,
2013-02-28 03:26:00,39.3,28.2,29.69,WSW,237,6.0,24.0,64,0.00,,SKC,0.00,0.00,VWS V14.01,2013-02-28 08:26:00,
2013-02-28 03:28:00,39.2,28.4,29.70,West,262,12.0,24.0,65,0.00,,SKC,0.00,0.00,VWS V14.01,2013-02-28 08:28:00,
2013-02-28 03:30:00,39.2,28.1,29.69,West,264,8.0,24.0,64,0.00,,SKC,0.00,0.00,VWS V14.01,2013-02-28 08:30:00,
2013-02-28 03:31:00,39.1,28.0,29.70,West,271,13.0,15.0,64,0.00,,SKC,0.00,0.00,VWS V14.01,2013-02-28 08:31:00,
2013-02-28 03:33:00,39.1,28.0,29.70,NW,304,13.0,19.0,64,0.00,,SKC,0.00,0.00,VWS V14.01,2013-02-28 08:33:00,
2013-02-28 03:35:00,39.1,28.3,29.70,WSW,254,7.0,19.0,65,0.00,,SKC,0.00,0.00,VWS V14.01,2013-02-28 08:35:00,
2013-02-28 03:36:00,39.1,28.3,29.70,SW,234,12.0,19.0,65,0.00,,SKC,0.00,0.00,VWS V14.01,2013-02-28 08:36:00,
2013-02-28 03:37:00,39.1,28.3,29.70,West,268,15.0,19.0,65,0.00,,SKC,0.00,0.00,VWS V14.01,2013-02-28 08:37:00,
2013-02-28 03:38:00,39.1,28.3,29.71,WNW,286,7.0,19.0,65,0.00,,SKC,0.00,0.00,VWS V14.01,2013-02-28 08:38:00,
2013-02-28 03:40:00,39.1,28.3,29.71,West,281,11.0,19.0,65,0.00,,SKC,0.00,0.00,VWS V14.01,2013-02-28 08:40:00,
2013-02-28 03:41:00,39.1,28.3,29.71,West,259,7.0,19.0,65,0.00,,SKC,0.00,0.00,VWS V14.01,2013-02-28 08:41:00,
2013-02-28 03:42:00,38.9,28.1,29.71,WNW,284,9.0,19.0,65,0.00,,SKC,0.00,0.00,VWS V14.01,2013-02-28 08:42:00,
2013-02-28 03:44:00,38.8,28.4,29.71,West,277,8.0,19.0,66,0.00,,SKC,0.00,0.00,VWS V14.01,2013-02-28 08:44:00,
2013-02-28 03:45:00,38.8,28.4,29.71,WNW,299,7.0,19.0,66,0.00,,SKC,0.00,0.00,VWS V14.01,2013-02-28 08:45:00,
2013-02-28 03:46:00,38.8,28.4,29.71,West,263,11.0,19.0,66,0.00,,SKC,0.00,0.00,VWS V14.01,2013-02-28 08:46:00,
2013-02-28 03:47:00,38.7,28.3,29.71,West,279,10.0,19.0,66,0.00,,SKC,0.00,0.00,VWS V14.01,2013-02-28 08:47:00,
2013-02-28 03:49:00,38.7,28.3,29.71,NNW,331,6.0,19.0,66,0.00,,SKC,0.00,0.00,VWS V14.01,2013-02-28 08:49:00,
2013-02-28 03:50:00,38.7,28.3,29.71,NNW,336,5.0,19.0,66,0.00,,SKC,0.00,0.00,VWS V14.01,2013-02-28 08:50:00,
2013-02-28 03:51:00,38.6,28.2,29.71,North,355,4.0,19.0,66,0.00,,SKC,0.00,0.00,VWS V14.01,2013-02-28 08:51:00,
2013-02-28 03:52:00,38.6,28.2,29.71,WSW,257,6.0,19.0,66,0.00,,SKC,0.00,0.00,VWS V14.01,2013-02-28 08:52:00,
2013-02-28 03:54:00,38.5,28.1,29.71,WSW,252,5.0,19.0,66,0.00,,SKC,0.00,0.00,VWS V14.01,2013-02-28 08:54:00,
2013-02-28 03:55:00,38.5,28.1,29.71,NW,304,5.0,19.0,66,0.00,,SKC,0.00,0.00,VWS V14.01,2013-02-28 08:55:00,
2013-02-28 03:57:00,38.5,28.1,29.71,West,277,6.0,19.0,66,0.00,,SKC,0.00,0.00,VWS V14.01,2013-02-28 08:57:00,
2013-02-28 03:59:00,38.4,28.4,29.71,WNW,290,4.0,19.0,67,0.00,,SKC,0.00,0.00,VWS V14.01,2013-02-28 08:59:00,
2013-02-28 04:00:00,38.4,28.4,29.71,WNW,297,11.0,19.0,67,0.00,,SKC,0.00,0.00,VWS V14.01,2013-02-28 09:00:00,
2013-02-28 04:02:00,38.4,28.4,29.71,West,275,10.0,14.0,67,0.00,,SKC,0.00,0.00,VWS V14.01,2013-02-28 09:02:00,
2013-02-28 04:04:00,38.5,28.5,29.71,NW,306,7.0,14.0,67,0.00,,SKC,0.00,0.00,VWS V14.01,2013-02-28 09:04:00,
2013-02-28 04:05:00,38.5,28.5,29.71,NW,319,4.0,14.0,67,0.00,,SKC,0.00,0.00,VWS V14.01,2013-02-28 09:05:00,
2013-02-28 04:07:00,38.4,28.4,29.71,WNW,289,6.0,14.0,67,0.00,,SKC,0.00,0.00,VWS V14.01,2013-02-28 09:07:00,
2013-02-28 04:10:00,38.4,28.4,29.71,NW,316,5.0,14.0,67,0.00,,SKC,0.00,0.00,VWS V14.01,2013-02-28 09:10:00,
2013-02-28 04:12:00,38.4,28.4,29.72,West,265,5.0,14.0,67,0.00,,SKC,0.00,0.00,VWS V14.01,2013-02-28 09:12:00,
2013-02-28 04:15:00,38.3,28.3,29.72,WNW,296,8.0,14.0,67,0.00,,SKC,0.00,0.00,VWS V14.01,2013-02-28 09:15:00,
2013-02-28 04:16:00,38.3,28.3,29.71,West,264,7.0,14.0,67,0.00,,SKC,0.00,0.00,VWS V14.01,2013-02-28 09:16:00,
2013-02-28 04:17:00,38.2,28.2,29.72,WNW,283,6.0,14.0,67,0.00,,SKC,0.00,0.00,VWS V14.01,2013-02-28 09:17:00,
2013-02-28 04:20:00,38.2,28.2,29.72,WNW,294,3.0,14.0,67,0.00,,SKC,0.00,0.00,VWS V14.01,2013-02-28 09:20:00,
2013-02-28 04:21:00,38.2,28.2,29.72,West,265,5.0,14.0,67,0.00,,SKC,0.00,0.00,VWS V14.01,2013-02-28 09:21:00,
2013-02-28 04:22:00,38.2,28.2,29.72,WNW,294,4.0,14.0,67,0.00,,SKC,0.00,0.00,VWS V14.01,2013-02-28 09:22:00,
2013-02-28 04:23:00,38.2,28.2,29.72,West,281,3.0,14.0,67,0.00,,SKC,0.00,0.00,VWS V14.01,2013-02-28 09:23:00,
2013-02-28 04:25:00,38.1,28.1,29.72,NW,310,1.0,14.0,67,0.00,,SKC,0.00,0.00,VWS V14.01,2013-02-28 09:25:00,
2013-02-28 04:26:00,38.1,28.1,29.72,West,277,4.0,14.0,67,0.00,,SKC,0.00,0.00,VWS V14.01,2013-02-28 09:26:00,
2013-02-28 04:27:00,38.0,28.0,29.72,West,273,5.0,14.0,67,0.00,,SKC,0.00,0.00,VWS V14.01,2013-02-28 09:27:00,
2013-02-28 04:28:00,38.0,28.0,29.72,West,269,3.0,14.0,67,0.00,,SKC,0.00,0.00,VWS V14.01,2013-02-28 09:28:00,
2013-02-28 04:30:00,38.0,28.4,29.72,West,275,1.0,14.0,68,0.00,,SKC,0.00,0.00,VWS V14.01,2013-02-28 09:30:00,
2013-02-28 04:31:00,37.9,28.3,29.72,West,275,4.0,4.0,68,0.00,,SKC,0.00,0.00,VWS V14.01,2013-02-28 09:31:00,
2013-02-28 04:33:00,37.9,28.3,29.72,West,275,2.0,4.0,68,0.00,,SKC,0.00,0.00,VWS V14.01,2013-02-28 09:33:00,
2013-02-28 04:35:00,37.8,28.2,29.71,West,275,3.0,4.0,68,0.00,,SKC,0.00,0.00,VWS V14.01,2013-02-28 09:35:00,
2013-02-28 04:36:00,37.8,28.2,29.72,West,275,3.0,4.0,68,0.00,,SKC,0.00,0.00,VWS V14.01,2013-02-28 09:36:00,
2013-02-28 04:38:00,37.7,28.1,29.72,NW,304,4.0,4.0,68,0.00,,SKC,0.00,0.00,VWS V14.01,2013-02-28 09:38:00,
2013-02-28 04:41:00,37.7,28.1,29.71,WNW,284,2.0,4.0,68,0.00,,SKC,0.00,0.00,VWS V14.01,2013-02-28 09:41:00,
2013-02-28 04:42:00,37.7,28.1,29.72,WNW,284,3.0,4.0,68,0.00,,SKC,0.00,0.00,VWS V14.01,2013-02-28 09:42:00,
2013-02-28 04:43:00,37.6,28.0,29.72,WNW,284,1.0,4.0,68,0.00,,SKC,0.00,0.00,VWS V14.01,2013-02-28 09:43:00,
2013-02-28 04:46:00,37.6,28.0,29.72,West,276,1.0,4.0,68,0.00,,SKC,0.00,0.00,VWS V14.01,2013-02-28 09:46:00,
2013-02-28 04:47:00,37.5,27.9,29.72,WNW,285,1.0,4.0,68,0.00,,SKC,0.00,0.00,VWS V14.01,2013-02-28 09:47:00,
2013-02-28 04:48:00,37.5,27.9,29.72,West,275,3.0,4.0,68,0.00,,SKC,0.00,0.00,VWS V14.01,2013-02-28 09:48:00,
2013-02-28 04:51:00,37.5,27.9,29.72,WNW,294,3.0,5.0,68,0.00,,SKC,0.00,0.00,VWS V14.01,2013-02-28 09:51:00,
2013-02-28 04:52:00,37.5,27.9,29.72,WNW,294,3.0,5.0,68,0.00,,SKC,0.00,0.00,VWS V14.01,2013-02-28 09:52:00,
2013-02-28 04:53:00,37.4,27.8,29.73,WNW,294,2.0,5.0,68,0.00,,SKC,0.00,0.00,VWS V14.01,2013-02-28 09:53:00,
2013-02-28 04:56:00,37.4,28.2,29.73,WNW,294,1.0,5.0,69,0.00,,SKC,0.00,0.00,VWS V14.01,2013-02-28 09:56:00,
2013-02-28 04:57:00,37.3,28.1,29.73,WNW,294,2.0,5.0,69,0.00,,SKC,0.00,0.00,VWS V14.01,2013-02-28 09:57:00,
2013-02-28 04:58:00,37.3,28.1,29.73,WNW,294,0.0,5.0,69,0.00,,SKC,0.00,0.00,VWS V14.01,2013-02-28 09:58:00,
2013-02-28 05:01:00,37.2,28.0,29.73,West,261,2.0,3.0,69,0.00,,SKC,0.00,0.00,VWS V14.01,2013-02-28 10:01:00,
2013-02-28 05:03:00,37.2,28.0,29.73,West,261,2.0,3.0,69,0.00,,SKC,0.00,0.00,VWS V14.01,2013-02-28 10:03:00,
2013-02-28 05:07:00,37.2,28.0,29.73,West,279,2.0,4.0,69,0.00,,SKC,0.00,0.00,VWS V14.01,2013-02-28 10:07:00,
2013-02-28 05:08:00,37.2,28.0,29.73,WNW,288,0.0,4.0,69,0.00,,SKC,0.00,0.00,VWS V14.01,2013-02-28 10:08:00,
2013-02-28 05:09:00,37.2,28.0,29.73,WNW,287,2.0,4.0,69,0.00,,SKC,0.00,0.00,VWS V14.01,2013-02-28 10:09:00,
2013-02-28 05:12:00,37.2,28.0,29.73,West,262,4.0,6.0,69,0.00,,SKC,0.00,0.00,VWS V14.01,2013-02-28 10:12:00,
2013-02-28 05:13:00,37.2,27.6,29.73,WNW,297,1.0,6.0,68,0.00,,SKC,0.00,0.00,VWS V14.01,2013-02-28 10:13:00,
2013-02-28 05:14:00,37.2,27.6,29.73,West,277,3.0,6.0,68,0.00,,SKC,0.00,0.00,VWS V14.01,2013-02-28 10:14:00,
2013-02-28 05:17:00,37.2,27.6,29.73,West,275,4.0,7.0,68,0.00,,SKC,0.00,0.00,VWS V14.01,2013-02-28 10:17:00,
2013-02-28 05:18:00,37.2,27.6,29.73,WNW,288,3.0,7.0,68,0.00,,SKC,0.00,0.00,VWS V14.01,2013-02-28 10:18:00,
2013-02-28 05:19:00,37.2,27.3,29.73,WNW,288,1.0,7.0,67,0.00,,SKC,0.00,0.00,VWS V14.01,2013-02-28 10:19:00,
2013-02-28 05:22:00,37.0,27.4,29.72,West,260,2.0,7.0,68,0.00,,SKC,0.00,0.00,VWS V14.01,2013-02-28 10:22:00,
2013-02-28 05:23:00,37.0,27.4,29.72,West,267,2.0,7.0,68,0.00,,SKC,0.00,0.00,VWS V14.01,2013-02-28 10:23:00,
2013-02-28 05:24:00,36.9,27.3,29.72,West,267,1.0,7.0,68,0.00,,SKC,0.00,0.00,VWS V14.01,2013-02-28 10:24:00,
2013-02-28 05:27:00,36.8,27.2,29.72,WSW,247,3.0,7.0,68,0.00,,SKC,0.00,0.00,VWS V14.01,2013-02-28 10:27:00,
2013-02-28 05:29:00,36.8,27.2,29.73,West,263,2.0,7.0,68,0.00,,SKC,0.00,0.00,VWS V14.01,2013-02-28 10:29:00,
2013-02-28 05:32:00,36.7,27.1,29.73,West,271,2.0,2.0,68,0.00,,SKC,0.00,0.00,VWS V14.01,2013-02-28 10:32:00,
2013-02-28 05:34:00,36.6,27.0,29.73,West,263,4.0,6.0,68,0.00,,SKC,0.00,0.00,VWS V14.01,2013-02-28 10:34:00,
2013-02-28 05:37:00,36.9,27.0,29.73,WSW,253,2.0,6.0,67,0.00,,SKC,0.00,0.00,VWS V14.01,2013-02-28 10:37:00,
2013-02-28 05:39:00,36.9,26.6,29.73,West,261,3.0,6.0,66,0.00,,SKC,0.00,0.00,VWS V14.01,2013-02-28 10:39:00,
2013-02-28 05:42:00,37.0,26.7,29.73,West,265,3.0,6.0,66,0.00,,SKC,0.00,0.00,VWS V14.01,2013-02-28 10:42:00,
2013-02-28 05:44:00,37.0,26.7,29.73,West,265,0.0,6.0,66,0.00,,SKC,0.00,0.00,VWS V14.01,2013-02-28 10:44:00,
2013-02-28 05:47:00,36.9,26.6,29.73,WSW,238,2.0,6.0,66,0.00,,SKC,0.00,0.00,VWS V14.01,2013-02-28 10:47:00,
2013-02-28 05:49:00,36.9,27.0,29.73,WSW,238,0.0,6.0,67,0.00,,SKC,0.00,0.00,VWS V14.01,2013-02-28 10:49:00,
2013-02-28 05:50:00,36.9,27.0,29.73,WSW,246,1.0,6.0,67,0.00,,SKC,0.00,0.00,VWS V14.01,2013-02-28 10:50:00,
2013-02-28 05:52:00,36.9,26.6,29.73,WSW,248,3.0,6.0,66,0.00,,SKC,0.00,0.00,VWS V14.01,2013-02-28 10:52:00,
2013-02-28 05:54:00,37.0,26.7,29.73,WSW,253,2.0,6.0,66,0.00,,SKC,0.00,0.00,VWS V14.01,2013-02-28 10:54:00,
2013-02-28 05:55:00,37.0,26.7,29.73,WSW,253,2.0,6.0,66,0.00,,SKC,0.00,0.00,VWS V14.01,2013-02-28 10:55:00,
2013-02-28 05:57:00,37.1,26.8,29.73,WSW,252,2.0,6.0,66,0.00,,SKC,0.00,0.00,VWS V14.01,2013-02-28 10:57:00,
2013-02-28 05:59:00,37.2,26.9,29.73,WSW,254,1.0,6.0,66,0.00,,SKC,0.00,0.00,VWS V14.01,2013-02-28 10:59:00,
2013-02-28 06:00:00,37.2,26.9,29.73,WSW,254,1.0,6.0,66,0.00,,SKC,0.00,0.00,VWS V14.01,2013-02-28 11:00:00,
2013-02-28 06:03:00,37.2,26.9,29.73,SW,227,1.0,4.0,66,0.00,,SKC,0.00,0.00,VWS V14.01,2013-02-28 11:03:00,
2013-02-28 06:04:00,37.2,26.5,29.73,West,279,3.0,4.0,65,0.00,,SKC,0.00,0.00,VWS V14.01,2013-02-28 11:04:00,
2013-02-28 06:05:00,37.3,26.6,29.73,West,275,4.0,6.0,65,0.00,,SKC,0.00,0.00,VWS V14.01,2013-02-28 11:05:00,
2013-02-28 06:08:00,37.4,26.7,29.73,WSW,240,3.0,7.0,65,0.00,,SKC,0.00,0.00,VWS V14.01,2013-02-28 11:08:00,
2013-02-28 06:09:00,37.4,26.7,29.73,WSW,245,2.0,7.0,65,0.00,,SKC,0.00,0.00,VWS V14.01,2013-02-28 11:09:00,
2013-02-28 06:10:00,37.4,27.1,29.73,West,273,4.0,7.0,66,0.00,,SKC,0.00,0.00,VWS V14.01,2013-02-28 11:10:00,
2013-02-28 06:13:00,37.3,27.0,29.73,WSW,258,2.0,7.0,66,0.00,,SKC,0.00,0.00,VWS V14.01,2013-02-28 11:13:00,
2013-02-28 06:14:00,37.3,27.0,29.73,WSW,248,2.0,7.0,66,0.00,,SKC,0.00,0.00,VWS V14.01,2013-02-28 11:14:00,
2013-02-28 06:15:00,37.2,26.9,29.73,WSW,248,1.0,7.0,66,0.00,,SKC,0.00,0.00,VWS V14.01,2013-02-28 11:15:00,
2013-02-28 06:16:00,37.1,26.8,29.73,WSW,248,2.0,7.0,66,0.00,,SKC,0.00,0.00,VWS V14.01,2013-02-28 11:16:00,
2013-02-28 06:18:00,37.0,27.1,29.73,WSW,248,0.0,7.0,67,0.00,,SKC,0.00,0.00,VWS V14.01,2013-02-28 11:18:00,
2013-02-28 06:20:00,37.0,27.1,29.73,WSW,248,0.0,7.0,67,0.00,,SKC,0.00,0.00,VWS V14.01,2013-02-28 11:20:00,
2013-02-28 06:21:00,37.0,27.1,29.73,WSW,248,0.0,7.0,67,0.00,,SKC,0.00,0.00,VWS V14.01,2013-02-28 11:21:00,
2013-02-28 06:23:00,36.9,27.0,29.73,WSW,248,2.0,7.0,67,0.00,,SKC,0.00,0.00,VWS V14.01,2013-02-28 11:23:00,
2013-02-28 06:25:00,37.1,27.2,29.73,West,276,4.0,7.0,67,0.00,,SKC,0.00,0.00,VWS V14.01,2013-02-28 11:25:00,
2013-02-28 06:26:00,37.1,27.2,29.73,WNW,290,3.0,7.0,67,0.00,,SKC,0.00,0.00,VWS V14.01,2013-02-28 11:26:00,
2013-02-28 06:29:00,37.2,27.3,29.73,WSW,240,2.0,7.0,67,0.00,,SKC,0.00,0.00,VWS V14.01,2013-02-28 11:29:00,
2013-02-28 06:30:00,37.2,27.3,29.73,WSW,240,0.0,7.0,67,0.00,,SKC,0.00,0.00,VWS V14.01,2013-02-28 11:30:00,
2013-02-28 06:31:00,37.2,27.3,29.73,WSW,240,0.0,7.0,67,0.00,,SKC,0.00,0.00,VWS V14.01,2013-02-28 11:31:00,
2013-02-28 06:34:00,37.1,27.2,29.73,WSW,242,1.0,1.0,67,0.00,,SKC,0.00,0.00,VWS V14.01,2013-02-28 11:34:00,
2013-02-28 06:35:00,37.1,27.2,29.73,West,259,2.0,3.0,67,0.00,,SKC,0.00,0.00,VWS V14.01,2013-02-28 11:35:00,
2013-02-28 06:36:00,37.1,27.2,29.73,West,259,2.0,3.0,67,0.00,,SKC,0.00,0.00,VWS V14.01,2013-02-28 11:36:00,
2013-02-28 06:39:00,37.1,27.2,29.73,West,261,2.0,3.0,67,0.00,,SKC,0.00,0.00,VWS V14.01,2013-02-28 11:39:00,
2013-02-28 06:40:00,37.1,27.2,29.73,West,261,2.0,3.0,67,0.00,,SKC,0.00,0.00,VWS V14.01,2013-02-28 11:40:00,
2013-02-28 06:41:00,37.1,27.2,29.73,West,261,0.0,3.0,67,0.00,,SKC,0.00,0.00,VWS V14.01,2013-02-28 11:41:00,
2013-02-28 06:44:00,37.0,27.4,29.73,West,261,2.0,3.0,68,0.00,,SKC,0.00,0.00,VWS V14.01,2013-02-28 11:44:00,
2013-02-28 06:45:00,37.0,27.4,29.74,West,261,1.0,3.0,68,0.00,,SKC,0.00,0.00,VWS V14.01,2013-02-28 11:45:00,
2013-02-28 06:46:00,37.0,27.4,29.74,West,261,1.0,3.0,68,0.00,,SKC,0.00,0.00,VWS V14.01,2013-02-28 11:46:00,
2013-02-28 06:49:00,36.9,27.3,29.74,West,261,4.0,4.0,68,0.00,,SKC,0.00,0.00,VWS V14.01,2013-02-28 11:49:00,
2013-02-28 06:51:00,36.9,27.3,29.74,WSW,248,4.0,4.0,68,0.00,,SKC,0.00,0.00,VWS V14.01,2013-02-28 11:51:00,
2013-02-28 06:55:00,36.9,27.7,29.74,SW,223,2.0,6.0,69,0.00,,SKC,0.00,0.00,VWS V14.01,2013-02-28 11:55:00,
2013-02-28 06:56:00,36.9,27.7,29.74,SW,223,3.0,6.0,69,0.00,,SKC,0.00,0.00,VWS V14.01,2013-02-28 11:56:00,
2013-02-28 07:00:00,37.0,27.8,29.74,SW,220,2.0,6.0,69,0.00,,SKC,0.00,5.00,VWS V14.01,2013-02-28 12:00:00,
2013-02-28 07:01:00,37.0,27.8,29.74,SW,220,0.0,6.0,69,0.00,,SKC,0.00,7.00,VWS V14.01,2013-02-28 12:01:00,
2013-02-28 07:05:00,37.0,27.8,29.74,SW,220,1.0,3.0,69,0.00,,SKC,0.00,9.00,VWS V14.01,2013-02-28 12:05:00,
2013-02-28 07:06:00,37.0,27.8,29.74,SW,220,4.0,4.0,69,0.00,,SKC,0.00,9.00,VWS V14.01,2013-02-28 12:06:00,
2013-02-28 07:07:00,37.0,27.8,29.74,SW,220,1.0,4.0,69,0.00,,SKC,0.00,9.00,VWS V14.01,2013-02-28 12:07:00,
2013-02-28 07:10:00,36.9,27.7,29.74,SW,220,0.0,4.0,69,0.00,,SKC,0.00,7.00,VWS V14.01,2013-02-28 12:10:00,
2013-02-28 07:11:00,36.9,27.7,29.74,SW,220,2.0,4.0,69,0.00,,SKC,0.00,7.00,VWS V14.01,2013-02-28 12:11:00,
2013-02-28 07:15:00,36.8,27.6,29.74,SW,220,0.0,4.0,69,0.00,,SKC,0.00,12.00,VWS V14.01,2013-02-28 12:15:00,
2013-02-28 07:16:00,36.9,27.7,29.74,SW,220,0.0,4.0,69,0.00,,SKC,0.00,16.00,VWS V14.01,2013-02-28 12:16:00,
2013-02-28 07:17:00,36.9,27.7,29.74,SW,220,0.0,4.0,69,0.00,,SKC,0.00,16.00,VWS V14.01,2013-02-28 12:17:00,
2013-02-28 07:21:00,36.8,28.0,29.74,SW,220,1.0,4.0,70,0.00,,SKC,0.00,19.00,VWS V14.01,2013-02-28 12:21:00,
2013-02-28 07:22:00,36.8,28.0,29.74,SW,220,0.0,4.0,70,0.00,,SKC,0.00,21.00,VWS V14.01,2013-02-28 12:22:00,
2013-02-28 07:26:00,36.8,28.0,29.74,SW,220,1.0,4.0,70,0.00,,SKC,0.00,23.00,VWS V14.01,2013-02-28 12:26:00,
2013-02-28 07:27:00,36.9,28.0,29.74,SW,220,3.0,4.0,70,0.00,,SKC,0.00,23.00,VWS V14.01,2013-02-28 12:27:00,
2013-02-28 07:31:00,36.9,28.0,29.74,WSW,257,1.0,3.0,70,0.00,,SKC,0.00,23.00,VWS V14.01,2013-02-28 12:31:00,
2013-02-28 07:32:00,36.9,28.0,29.74,WSW,257,2.0,3.0,70,0.00,,SKC,0.00,23.00,VWS V14.01,2013-02-28 12:32:00,
2013-02-28 07:37:00,37.0,28.1,29.74,West,276,3.0,6.0,70,0.00,,SKC,0.00,25.00,VWS V14.01,2013-02-28 12:37:00,
2013-02-28 07:42:00,37.0,28.1,29.74,WSW,237,4.0,6.0,70,0.00,,SKC,0.00,25.00,VWS V14.01,2013-02-28 12:42:00,
2013-02-28 07:47:00,37.1,28.2,29.74,WSW,257,2.0,6.0,70,0.00,,SKC,0.00,39.00,VWS V14.01,2013-02-28 12:47:00,
2013-02-28 07:52:00,37.0,28.5,29.75,SW,217,7.0,7.0,71,0.00,,SKC,0.00,42.00,VWS V14.01,2013-02-28 12:52:00,
2013-02-28 07:57:00,37.0,28.5,29.75,SW,219,4.0,7.0,71,0.00,,SKC,0.00,42.00,VWS V14.01,2013-02-28 12:57:00,
2013-02-28 08:02:00,37.0,28.8,29.75,SW,234,1.0,4.0,72,0.00,,SKC,0.00,65.00,VWS V14.01,2013-02-28 13:02:00,
2013-02-28 08:03:00,37.0,28.8,29.75,WSW,252,2.0,4.0,72,0.00,,SKC,0.00,72.00,VWS V14.01,2013-02-28 13:03:00,
2013-02-28 08:07:00,37.1,28.9,29.75,SW,228,1.0,5.0,72,0.00,,SKC,0.00,116.00,VWS V14.01,2013-02-28 13:07:00,
2013-02-28 08:08:00,37.1,28.9,29.75,SW,229,2.0,5.0,72,0.00,,SKC,0.00,130.00,VWS V14.01,2013-02-28 13:08:00,
2013-02-28 08:12:00,37.3,29.1,29.75,SW,236,3.0,5.0,72,0.00,,SKC,0.00,149.00,VWS V14.01,2013-02-28 13:12:00,
2013-02-28 08:13:00,37.3,29.1,29.75,SW,236,2.0,5.0,72,0.00,,SKC,0.00,134.00,VWS V14.01,2013-02-28 13:13:00,
2013-02-28 08:18:00,37.3,29.1,29.75,SW,230,2.0,8.0,72,0.00,,SKC,0.00,86.00,VWS V14.01,2013-02-28 13:18:00,
2013-02-28 08:23:00,37.4,29.2,29.75,West,263,5.0,8.0,72,0.00,,SKC,0.00,105.00,VWS V14.01,2013-02-28 13:23:00,
2013-02-28 08:28:00,37.5,29.6,29.75,SW,220,3.0,8.0,73,0.00,,SKC,0.00,135.00,VWS V14.01,2013-02-28 13:28:00,
2013-02-28 08:33:00,37.7,29.5,29.75,SW,233,2.0,2.0,72,0.00,,SKC,0.00,132.00,VWS V14.01,2013-02-28 13:33:00,
2013-02-28 08:38:00,37.9,30.0,29.75,SW,228,3.0,3.0,73,0.00,,SKC,0.00,100.00,VWS V14.01,2013-02-28 13:38:00,
2013-02-28 08:39:00,37.9,29.7,29.75,SW,228,2.0,3.0,72,0.00,,SKC,0.00,90.00,VWS V14.01,2013-02-28 13:39:00,
2013-02-28 08:43:00,37.9,29.7,29.76,WNW,296,3.0,5.0,72,0.00,,SKC,0.00,40.00,VWS V14.01,2013-02-28 13:43:00,
2013-02-28 08:44:00,37.9,29.4,29.76,North,355,3.0,5.0,71,0.00,,SKC,0.00,33.00,VWS V14.01,2013-02-28 13:44:00,
2013-02-28 08:48:00,37.8,29.6,29.76,WNW,285,2.0,9.0,72,0.00,,SKC,0.00,25.00,VWS V14.01,2013-02-28 13:48:00,
2013-02-28 08:49:00,37.8,29.6,29.76,WNW,300,2.0,9.0,72,0.00,,SKC,0.00,30.00,VWS V14.01,2013-02-28 13:49:00,
2013-02-28 08:53:00,37.7,29.2,29.76,West,279,2.0,9.0,71,0.00,,SKC,0.00,77.00,VWS V14.01,2013-02-28 13:53:00,
2013-02-28 08:54:00,37.7,29.2,29.76,WNW,288,0.0,9.0,71,0.00,,SKC,0.00,74.00,VWS V14.01,2013-02-28 13:54:00,
2013-02-28 08:55:00,37.7,29.2,29.76,WNW,284,1.0,9.0,71,0.00,,SKC,0.00,69.00,VWS V14.01,2013-02-28 13:55:00,
2013-02-28 08:58:00,37.7,29.5,29.76,NW,309,3.0,9.0,72,0.00,,SKC,0.00,46.00,VWS V14.01,2013-02-28 13:58:00,
2013-02-28 08:59:00,37.7,29.5,29.76,West,278,6.0,9.0,72,0.00,,SKC,0.00,46.00,VWS V14.01,2013-02-28 13:59:00,
2013-02-28 09:00:00,37.7,29.2,29.76,West,272,4.0,9.0,71,0.00,,SKC,0.00,46.00,VWS V14.01,2013-02-28 14:00:00,
2013-02-28 09:03:00,37.7,29.2,29.76,WSW,245,0.0,2.0,71,0.00,,SKC,0.00,42.00,VWS V14.01,2013-02-28 14:03:00,
2013-02-28 09:04:00,37.7,29.2,29.76,WSW,245,0.0,2.0,71,0.00,,SKC,0.00,42.00,VWS V14.01,2013-02-28 14:04:00,
2013-02-28 09:05:00,37.7,29.2,29.76,WSW,245,1.0,2.0,71,0.00,,SKC,0.00,49.00,VWS V14.01,2013-02-28 14:05:00,
2013-02-28 09:08:00,37.7,29.5,29.76,West,276,3.0,4.0,72,0.00,,SKC,0.00,58.00,VWS V14.01,2013-02-28 14:08:00,
2013-02-28 09:09:00,37.7,29.2,29.76,WSW,258,7.0,7.0,71,0.00,,SKC,0.00,58.00,VWS V14.01,2013-02-28 14:09:00,
2013-02-28 09:10:00,37.7,29.2,29.76,NW,324,6.0,7.0,71,0.00,,SKC,0.00,63.00,VWS V14.01,2013-02-28 14:10:00,
2013-02-28 09:13:00,37.7,29.2,29.76,West,268,4.0,10.0,71,0.00,,SKC,0.00,67.00,VWS V14.01,2013-02-28 14:13:00,
2013-02-28 09:14:00,37.6,29.1,29.76,West,280,2.0,10.0,71,0.00,,SKC,0.00,67.00,VWS V14.01,2013-02-28 14:14:00,
2013-02-28 09:15:00,37.7,29.2,29.75,WNW,298,3.0,10.0,71,0.00,,SKC,0.00,65.00,VWS V14.01,2013-02-28 14:15:00,
2013-02-28 09:18:00,37.6,29.1,29.75,West,277,3.0,10.0,71,0.00,,SKC,0.00,72.00,VWS V14.01,2013-02-28 14:18:00,
2013-02-28 09:19:00,37.6,29.1,29.75,West,271,6.0,10.0,71,0.00,,SKC,0.00,72.00,VWS V14.01,2013-02-28 14:19:00,
2013-02-28 09:20:00,37.6,29.1,29.76,West,272,2.0,10.0,71,0.00,,SKC,0.00,76.00,VWS V14.01,2013-02-28 14:20:00,
2013-02-28 09:21:00,37.6,29.1,29.75,WNW,293,6.0,10.0,71,0.00,,SKC,0.00,86.00,VWS V14.01,2013-02-28 14:21:00,
2013-02-28 09:23:00,37.5,29.0,29.75,NW,317,3.0,10.0,71,0.00,,SKC,0.00,109.00,VWS V14.01,2013-02-28 14:23:00,
2013-02-28 09:24:00,37.5,29.0,29.75,NW,317,0.0,10.0,71,0.00,,SKC,0.00,134.00,VWS V14.01,2013-02-28 14:24:00,
2013-02-28 09:25:00,37.6,29.4,29.75,NW,315,1.0,10.0,72,0.00,,SKC,0.00,151.00,VWS V14.01,2013-02-28 14:25:00,
2013-02-28 09:26:00,37.6,29.4,29.75,WNW,300,3.0,10.0,72,0.00,,SKC,0.00,167.00,VWS V14.01,2013-02-28 14:26:00,
2013-02-28 09:28:00,37.7,29.2,29.75,NW,305,0.0,10.0,71,0.00,,SKC,0.00,160.00,VWS V14.01,2013-02-28 14:28:00,
2013-02-28 09:29:00,37.7,29.2,29.75,West,263,4.0,10.0,71,0.00,,SKC,0.00,155.00,VWS V14.01,2013-02-28 14:29:00,
2013-02-28 09:30:00,37.8,29.3,29.75,West,266,5.0,10.0,71,0.00,,SKC,0.00,174.00,VWS V14.01,2013-02-28 14:30:00,
2013-02-28 09:31:00,37.8,29.3,29.75,NNW,334,0.0,3.0,71,0.00,,SKC,0.00,174.00,VWS V14.01,2013-02-28 14:31:00,
2013-02-28 09:33:00,37.9,29.4,29.75,NW,323,3.0,3.0,71,0.00,,SKC,0.00,211.00,VWS V14.01,2013-02-28 14:33:00,
2013-02-28 09:34:00,38.0,29.5,29.75,WNW,296,2.0,5.0,71,0.00,,SKC,0.00,213.00,VWS V14.01,2013-02-28 14:34:00,
2013-02-28 09:35:00,38.0,29.5,29.75,West,279,2.0,5.0,71,0.00,,SKC,0.00,213.00,VWS V14.01,2013-02-28 14:35:00,
2013-02-28 09:36:00,38.1,29.5,29.75,West,279,3.0,5.0,71,0.00,,SKC,0.00,229.00,VWS V14.01,2013-02-28 14:36:00,
2013-02-28 09:39:00,38.3,29.7,29.75,NW,307,4.0,5.0,71,0.00,,SKC,0.00,323.00,VWS V14.01,2013-02-28 14:39:00,
2013-02-28 09:40:00,38.3,29.4,29.75,WNW,293,0.0,5.0,70,0.00,,SKC,0.00,323.00,VWS V14.01,2013-02-28 14:40:00,
2013-02-28 09:41:00,38.5,29.9,29.75,NW,309,4.0,5.0,71,0.00,,SKC,0.00,323.00,VWS V14.01,2013-02-28 14:41:00,
2013-02-28 09:44:00,38.7,29.4,29.75,WNW,283,3.0,9.0,69,0.00,,SKC,0.00,253.00,VWS V14.01,2013-02-28 14:44:00,
2013-02-28 09:45:00,38.8,29.5,29.75,West,271,3.0,9.0,69,0.00,,SKC,0.00,364.00,VWS V14.01,2013-02-28 14:45:00,
2013-02-28 09:46:00,38.8,29.5,29.75,West,267,1.0,9.0,69,0.00,,SKC,0.00,322.00,VWS V14.01,2013-02-28 14:46:00,
2013-02-28 09:49:00,39.1,29.8,29.75,NNW,340,6.0,9.0,69,0.00,,SKC,0.00,237.00,VWS V14.01,2013-02-28 14:49:00,
2013-02-28 09:50:00,39.2,29.9,29.75,West,281,6.0,9.0,69,0.00,,SKC,0.00,251.00,VWS V14.01,2013-02-28 14:50:00,
2013-02-28 09:51:00,39.2,29.9,29.75,NNW,336,3.0,9.0,69,0.00,,SKC,0.00,265.00,VWS V14.01,2013-02-28 14:51:00,
2013-02-28 09:52:00,39.3,30.0,29.75,NW,304,5.0,9.0,69,0.00,,SKC,0.00,221.00,VWS V14.01,2013-02-28 14:52:00,
2013-02-28 09:54:00,39.4,29.7,29.75,West,281,2.0,9.0,68,0.00,,SKC,0.00,172.00,VWS V14.01,2013-02-28 14:54:00,
2013-02-28 09:55:00,39.4,29.7,29.75,WNW,294,0.0,9.0,68,0.00,,SKC,0.00,172.00,VWS V14.01,2013-02-28 14:55:00,
2013-02-28 09:56:00,39.5,29.8,29.75,WNW,300,7.0,9.0,68,0.00,,SKC,0.00,185.00,VWS V14.01,2013-02-28 14:56:00,
2013-02-28 09:57:00,39.4,29.4,29.75,WSW,254,4.0,9.0,67,0.00,,SKC,0.00,158.00,VWS V14.01,2013-02-28 14:57:00,
2013-02-28 09:59:00,39.1,29.1,29.75,NW,304,5.0,11.0,67,0.00,,SKC,0.00,234.00,VWS V14.01,2013-02-28 14:59:00,
2013-02-28 10:00:00,39.1,29.1,29.75,West,263,4.0,12.0,67,0.00,,SKC,0.00,220.00,VWS V14.01,2013-02-28 15:00:00,
2013-02-28 10:01:00,39.0,29.0,29.75,WNW,288,5.0,12.0,67,0.00,,SKC,0.00,220.00,VWS V14.01,2013-02-28 15:01:00,
2013-02-28 10:02:00,39.0,29.0,29.76,WNW,290,6.0,6.0,67,0.00,,SKC,0.00,311.00,VWS V14.01,2013-02-28 15:02:00,
2013-02-28 10:04:00,39.0,29.0,29.75,NW,314,6.0,9.0,67,0.00,,SKC,0.00,274.00,VWS V14.01,2013-02-28 15:04:00,
2013-02-28 10:05:00,39.0,29.0,29.75,WNW,292,1.0,9.0,67,0.00,,SKC,0.00,276.00,VWS V14.01,2013-02-28 15:05:00,
2013-02-28 10:06:00,39.0,29.0,29.75,WNW,292,1.0,9.0,67,0.00,,SKC,0.00,276.00,VWS V14.01,2013-02-28 15:06:00,
2013-02-28 10:07:00,39.1,29.1,29.75,WSW,255,5.0,9.0,67,0.00,,SKC,0.00,272.00,VWS V14.01,2013-02-28 15:07:00,
2013-02-28 10:09:00,39.4,29.7,29.75,WSW,240,6.0,11.0,68,0.00,,SKC,0.00,468.00,VWS V14.01,2013-02-28 15:09:00,
2013-02-28 10:11:00,39.5,29.5,29.75,WSW,238,6.0,11.0,67,0.00,,SKC,0.00,687.00,VWS V14.01,2013-02-28 15:11:00,
2013-02-28 10:12:00,39.9,29.9,29.75,West,264,4.0,11.0,67,0.00,,SKC,0.00,613.00,VWS V14.01,2013-02-28 15:12:00,
2013-02-28 10:15:00,40.3,29.5,29.75,West,277,6.0,11.0,65,0.00,,SKC,0.00,503.00,VWS V14.01,2013-02-28 15:15:00,
2013-02-28 10:16:00,40.1,29.3,29.75,SW,224,6.0,11.0,65,0.00,,SKC,0.00,496.00,VWS V14.01,2013-02-28 15:16:00,
2013-02-28 10:17:00,40.1,29.7,29.75,SW,223,12.0,15.0,66,0.00,,SKC,0.00,520.00,VWS V14.01,2013-02-28 15:17:00,
2013-02-28 10:20:00,39.9,29.5,29.75,West,261,3.0,15.0,66,0.00,,SKC,0.00,341.00,VWS V14.01,2013-02-28 15:20:00,
2013-02-28 10:21:00,40.0,29.9,29.75,WNW,285,8.0,15.0,67,0.00,,SKC,0.00,216.00,VWS V14.01,2013-02-28 15:21:00,
2013-02-28 10:22:00,40.0,29.2,29.75,West,277,7.0,15.0,65,0.00,,SKC,0.00,213.00,VWS V14.01,2013-02-28 15:22:00,
2013-02-28 10:25:00,39.9,29.1,29.75,WNW,284,6.0,15.0,65,0.00,,SKC,0.00,211.00,VWS V14.01,2013-02-28 15:25:00,
2013-02-28 10:26:00,39.9,29.5,29.75,SW,223,5.0,15.0,66,0.00,,SKC,0.00,209.00,VWS V14.01,2013-02-28 15:26:00,
2013-02-28 10:27:00,39.9,29.1,29.75,WSW,242,1.0,15.0,65,0.00,,SKC,0.00,221.00,VWS V14.01,2013-02-28 15:27:00,
2013-02-28 10:30:00,39.8,27.9,29.75,West,265,9.0,17.0,62,0.00,,SKC,0.00,232.00,VWS V14.01,2013-02-28 15:30:00,
2013-02-28 10:31:00,39.7,27.8,29.75,NW,317,5.0,8.0,62,0.00,,SKC,0.00,271.00,VWS V14.01,2013-02-28 15:31:00,
2013-02-28 10:32:00,39.7,28.1,29.75,WNW,289,8.0,8.0,63,0.00,,SKC,0.00,299.00,VWS V14.01,2013-02-28 15:32:00,
2013-02-28 10:35:00,39.7,28.1,29.76,NW,304,6.0,18.0,63,0.00,,SKC,0.00,294.00,VWS V14.01,2013-02-28 15:35:00,
2013-02-28 10:36:00,39.8,28.2,29.76,West,267,11.0,18.0,63,0.00,,SKC,0.00,661.00,VWS V14.01,2013-02-28 15:36:00,
2013-02-28 10:37:00,39.8,27.9,29.76,West,260,14.0,18.0,62,0.00,,SKC,0.00,272.00,VWS V14.01,2013-02-28 15:37:00,
2013-02-28 10:40:00,39.9,27.6,29.76,West,264,13.0,18.0,61,0.00,,SKC,0.00,311.00,VWS V14.01,2013-02-28 15:40:00,
2013-02-28 10:41:00,39.9,27.2,29.76,WNW,285,9.0,18.0,60,0.00,,SKC,0.00,315.00,VWS V14.01,2013-02-28 15:41:00,
2013-02-28 10:42:00,39.9,27.2,29.76,WNW,294,8.0,18.0,60,0.00,,SKC,0.00,315.00,VWS V14.01,2013-02-28 15:42:00,
2013-02-28 10:45:00,40.0,27.2,29.76,NNW,341,6.0,18.0,60,0.00,,SKC,0.00,388.00,VWS V14.01,2013-02-28 15:45:00,
2013-02-28 10:46:00,40.2,27.4,29.75,SW,226,13.0,18.0,60,0.00,,SKC,0.00,388.00,VWS V14.01,2013-02-28 15:46:00,
2013-02-28 10:47:00,40.3,27.1,29.76,WNW,294,7.0,18.0,59,0.00,,SKC,0.00,388.00,VWS V14.01,2013-02-28 15:47:00,
2013-02-28 10:50:00,40.4,26.4,29.76,WNW,286,16.0,18.0,57,0.00,,SKC,0.00,371.00,VWS V14.01,2013-02-28 15:50:00,
2013-02-28 10:52:00,40.3,26.3,29.75,West,265,8.0,21.0,57,0.00,,SKC,0.00,404.00,VWS V14.01,2013-02-28 15:52:00,
2013-02-28 10:53:00,40.2,26.2,29.76,West,271,6.0,21.0,57,0.00,,SKC,0.00,404.00,VWS V14.01,2013-02-28 15:53:00,
2013-02-28 10:55:00,40.2,26.6,29.76,SW,223,7.0,21.0,58,0.00,,SKC,0.00,209.00,VWS V14.01,2013-02-28 15:55:00,
2013-02-28 10:57:00,40.2,26.2,29.76,WNW,284,12.0,21.0,57,0.00,,SKC,0.00,209.00,VWS V14.01,2013-02-28 15:57:00,
2013-02-28 10:58:00,40.1,25.7,29.76,WNW,301,7.0,21.0,56,0.00,,SKC,0.00,206.00,VWS V14.01,2013-02-28 15:58:00,
2013-02-28 11:00:00,40.0,26.0,29.76,NW,309,3.0,21.0,57,0.00,,SKC,0.00,243.00,VWS V14.01,2013-02-28 16:00:00,
2013-02-28 11:02:00,40.0,26.0,29.76,NW,319,8.0,10.0,57,0.00,,SKC,0.00,221.00,VWS V14.01,2013-02-28 16:02:00,
2013-02-28 11:03:00,40.1,25.7,29.76,West,265,13.0,14.0,56,0.00,,SKC,0.00,223.00,VWS V14.01,2013-02-28 16:03:00,
2013-02-28 11:05:00,39.8,25.0,29.76,West,274,11.0,15.0,55,0.00,,SKC,0.00,186.00,VWS V14.01,2013-02-28 16:05:00,
2013-02-28 11:07:00,39.6,24.8,29.76,West,267,5.0,17.0,55,0.00,,SKC,0.00,193.00,VWS V14.01,2013-02-28 16:07:00,
2013-02-28 11:08:00,39.6,25.2,29.76,WSW,256,8.0,17.0,56,0.00,,SKC,0.00,213.00,VWS V14.01,2013-02-28 16:08:00,
2013-02-28 11:10:00,39.6,25.2,29.76,West,265,9.0,17.0,56,0.00,,SKC,0.00,209.00,VWS V14.01,2013-02-28 16:10:00,
2013-02-28 11:12:00,39.5,24.7,29.76,West,281,7.0,17.0,55,0.00,,SKC,0.00,204.00,VWS V14.01,2013-02-28 16:12:00,
2013-02-28 11:13:00,39.6,25.2,29.77,West,262,8.0,17.0,56,0.00,,SKC,0.00,236.00,VWS V14.01,2013-02-28 16:13:00,
2013-02-28 11:14:00,39.6,25.2,29.77,WNW,302,6.0,17.0,56,0.00,,SKC,0.00,241.00,VWS V14.01,2013-02-28 16:14:00,
2013-02-28 11:16:00,39.6,25.2,29.77,West,262,8.0,17.0,56,0.00,,SKC,0.00,211.00,VWS V14.01,2013-02-28 16:16:00,
2013-02-28 11:17:00,39.6,25.6,29.77,WNW,289,8.0,17.0,57,0.00,,SKC,0.00,214.00,VWS V14.01,2013-02-28 16:17:00,
2013-02-28 11:18:00,39.6,25.6,29.77,WSW,245,5.0,17.0,57,0.00,,SKC,0.00,218.00,VWS V14.01,2013-02-28 16:18:00,
2013-02-28 11:19:00,39.6,25.6,29.77,SW,229,7.0,17.0,57,0.00,,SKC,0.00,218.00,VWS V14.01,2013-02-28 16:19:00,
2013-02-28 11:21:00,39.7,26.1,29.77,West,279,15.0,17.0,58,0.00,,SKC,0.00,174.00,VWS V14.01,2013-02-28 16:21:00,
2013-02-28 11:22:00,39.7,25.3,29.77,West,261,9.0,17.0,56,0.00,,SKC,0.00,183.00,VWS V14.01,2013-02-28 16:22:00,
2013-02-28 11:24:00,39.7,24.9,29.77,West,261,11.0,17.0,55,0.00,,SKC,0.00,202.00,VWS V14.01,2013-02-28 16:24:00,
2013-02-28 11:26:00,39.6,24.8,29.77,West,267,11.0,17.0,55,0.00,,SKC,0.00,216.00,VWS V14.01,2013-02-28 16:26:00,
2013-02-28 11:27:00,39.6,24.8,29.77,SW,230,10.0,17.0,55,0.00,,SKC,0.00,183.00,VWS V14.01,2013-02-28 16:27:00,
2013-02-28 11:29:00,39.6,24.3,29.77,West,281,3.0,17.0,54,0.00,,SKC,0.00,167.00,VWS V14.01,2013-02-28 16:29:00,
2013-02-28 11:31:00,39.6,25.2,29.77,West,277,15.0,16.0,56,0.00,,SKC,0.00,185.00,VWS V14.01,2013-02-28 16:31:00,
2013-02-28 11:33:00,39.6,24.8,29.77,West,266,7.0,16.0,55,0.00,,SKC,0.00,232.00,VWS V14.01,2013-02-28 16:33:00,
2013-02-28 11:34:00,39.6,25.2,29.77,West,267,6.0,16.0,56,0.00,,SKC,0.00,232.00,VWS V14.01,2013-02-28 16:34:00,
2013-02-28 11:36:00,39.7,25.3,29.77,WNW,284,13.0,16.0,56,0.00,,SKC,0.00,248.00,VWS V14.01,2013-02-28 16:36:00,
2013-02-28 11:38:00,39.7,24.9,29.77,NW,326,8.0,16.0,55,0.00,,SKC,0.00,246.00,VWS V14.01,2013-02-28 16:38:00,
2013-02-28 11:39:00,39.7,24.9,29.77,NW,325,4.0,16.0,55,0.00,,SKC,0.00,239.00,VWS V14.01,2013-02-28 16:39:00,
2013-02-28 11:41:00,39.9,25.5,29.77,WNW,284,11.0,16.0,56,0.00,,SKC,0.00,204.00,VWS V14.01,2013-02-28 16:41:00,
2013-02-28 11:43:00,40.0,25.1,29.77,West,277,6.0,16.0,55,0.00,,SKC,0.00,207.00,VWS V14.01,2013-02-28 16:43:00,
2013-02-28 11:44:00,40.0,25.1,29.77,WNW,287,1.0,16.0,55,0.00,,SKC,0.00,192.00,VWS V14.01,2013-02-28 16:44:00,
2013-02-28 11:45:00,40.0,25.1,29.77,WNW,294,4.0,16.0,55,0.00,,SKC,0.00,174.00,VWS V14.01,2013-02-28 16:45:00,
2013-02-28 11:47:00,40.0,25.1,29.77,North,5,7.0,16.0,55,0.00,,SKC,0.00,174.00,VWS V14.01,2013-02-28 16:47:00,
2013-02-28 11:48:00,40.1,25.7,29.77,West,268,4.0,16.0,56,0.00,,SKC,0.00,206.00,VWS V14.01,2013-02-28 16:48:00,
2013-02-28 11:49:00,40.1,25.2,29.77,WSW,254,4.0,16.0,55,0.00,,SKC,0.00,207.00,VWS V14.01,2013-02-28 16:49:00,
2013-02-28 11:50:00,40.1,25.2,29.77,WSW,254,2.0,16.0,55,0.00,,SKC,0.00,207.00,VWS V14.01,2013-02-28 16:50:00,
2013-02-28 11:52:00,40.1,25.7,29.77,WNW,296,4.0,16.0,56,0.00,,SKC,0.00,221.00,VWS V14.01,2013-02-28 16:52:00,
2013-02-28 11:53:00,40.1,25.7,29.77,WSW,238,9.0,16.0,56,0.00,,SKC,0.00,225.00,VWS V14.01,2013-02-28 16:53:00,
2013-02-28 11:55:00,40.0,25.6,29.77,SW,221,9.0,16.0,56,0.00,,SKC,0.00,207.00,VWS V14.01,2013-02-28 16:55:00,
2013-02-28 11:57:00,39.7,25.3,29.76,West,263,4.0,16.0,56,0.00,,SKC,0.00,236.00,VWS V14.01,2013-02-28 16:57:00,
2013-02-28 11:58:00,39.7,25.7,29.77,WSW,254,6.0,16.0,57,0.00,,SKC,0.00,234.00,VWS V14.01,2013-02-28 16:58:00,
2013-02-28 12:00:00,39.7,25.7,29.77,WSW,256,7.0,16.0,57,0.00,,SKC,0.00,229.00,VWS V14.01,2013-02-28 17:00:00,
2013-02-28 12:02:00,39.8,25.4,29.76,West,266,5.0,10.0,56,0.00,,SKC,0.00,248.00,VWS V14.01,2013-02-28 17:02:00,
2013-02-28 12:03:00,39.7,25.3,29.76,West,259,5.0,10.0,56,0.00,,SKC,0.00,271.00,VWS V14.01,2013-02-28 17:03:00,
2013-02-28 12:05:00,39.7,25.3,29.77,SW,228,5.0,10.0,56,0.00,,SKC,0.00,279.00,VWS V14.01,2013-02-28 17:05:00,
2013-02-28 12:08:00,39.6,25.6,29.77,SW,236,13.0,13.0,57,0.00,,SKC,0.00,257.00,VWS V14.01,2013-02-28 17:08:00,
2013-02-28 12:10:00,39.6,25.6,29.76,West,264,4.0,13.0,57,0.00,,SKC,0.00,288.00,VWS V14.01,2013-02-28 17:10:00,
2013-02-28 12:13:00,39.8,25.8,29.76,NW,326,6.0,13.0,57,0.00,,SKC,0.00,211.00,VWS V14.01,2013-02-28 17:13:00,
2013-02-28 12:15:00,39.8,25.4,29.76,NW,321,9.0,13.0,56,0.00,,SKC,0.00,223.00,VWS V14.01,2013-02-28 17:15:00,
2013-02-28 12:18:00,39.7,25.3,29.76,NNW,333,6.0,15.0,56,0.00,,SKC,0.00,188.00,VWS V14.01,2013-02-28 17:18:00,
2013-02-28 12:20:00,39.7,25.3,29.76,West,279,14.0,15.0,56,0.00,,SKC,0.00,190.00,VWS V14.01,2013-02-28 17:20:00,
2013-02-28 12:23:00,39.7,24.9,29.76,NNW,331,14.0,18.0,55,0.00,,SKC,0.00,185.00,VWS V14.01,2013-02-28 17:23:00,
2013-02-28 12:24:00,39.6,24.8,29.76,North,351,7.0,18.0,55,0.00,,SKC,0.00,176.00,VWS V14.01,2013-02-28 17:24:00,
2013-02-28 12:25:00,39.6,24.8,29.76,NNW,336,8.0,18.0,55,0.00,,SKC,0.00,171.00,VWS V14.01,2013-02-28 17:25:00,
2013-02-28 12:28:00,39.6,24.8,29.76,NW,326,6.0,18.0,55,0.00,,SKC,0.00,200.00,VWS V14.01,2013-02-28 17:28:00,
2013-02-28 12:29:00,39.7,25.3,29.76,West,281,4.0,18.0,56,0.00,,SKC,0.00,200.00,VWS V14.01,2013-02-28 17:29:00,
2013-02-28 12:30:00,39.7,25.3,29.76,NW,315,11.0,18.0,56,0.00,,SKC,0.00,206.00,VWS V14.01,2013-02-28 17:30:00,
2013-02-28 12:33:00,39.7,24.9,29.76,WNW,288,7.0,12.0,55,0.00,,SKC,0.00,153.00,VWS V14.01,2013-02-28 17:33:00,
2013-02-28 12:34:00,39.7,24.9,29.76,West,270,8.0,12.0,55,0.00,,SKC,0.00,139.00,VWS V14.01,2013-02-28 17:34:00,
2013-02-28 12:35:00,39.7,24.9,29.76,West,273,11.0,12.0,55,0.00,,SKC,0.00,137.00,VWS V14.01,2013-02-28 17:35:00,
2013-02-28 12:38:00,39.8,25.4,29.76,WSW,245,3.0,12.0,56,0.00,,SKC,0.00,135.00,VWS V14.01,2013-02-28 17:38:00,
2013-02-28 12:39:00,39.8,25.4,29.76,West,263,3.0,12.0,56,0.00,,SKC,0.00,146.00,VWS V14.01,2013-02-28 17:39:00,
2013-02-28 12:41:00,39.7,25.3,29.76,SW,234,6.0,12.0,56,0.00,,SKC,0.00,153.00,VWS V14.01,2013-02-28 17:41:00,
2013-02-28 12:43:00,39.6,25.6,29.76,SSW,212,8.0,12.0,57,0.00,,SKC,0.00,181.00,VWS V14.01,2013-02-28 17:43:00,
2013-02-28 12:44:00,39.5,25.5,29.76,WSW,244,7.0,12.0,57,0.00,,SKC,0.00,214.00,VWS V14.01,2013-02-28 17:44:00,
2013-02-28 12:46:00,39.5,25.5,29.76,SW,228,2.0,12.0,57,0.00,,SKC,0.00,220.00,VWS V14.01,2013-02-28 17:46:00,
2013-02-28 12:48:00,39.5,25.5,29.75,WNW,286,3.0,12.0,57,0.00,,SKC,0.00,206.00,VWS V14.01,2013-02-28 17:48:00,
2013-02-28 12:49:00,39.6,26.1,29.75,West,273,6.0,12.0,58,0.00,,SKC,0.00,211.00,VWS V14.01,2013-02-28 17:49:00,
2013-02-28 12:51:00,39.6,25.6,29.75,West,262,7.0,12.0,57,0.00,,SKC,0.00,207.00,VWS V14.01,2013-02-28 17:51:00,
2013-02-28 12:53:00,39.7,25.3,29.75,SW,227,4.0,14.0,56,0.00,,SKC,0.00,236.00,VWS V14.01,2013-02-28 17:53:00,
2013-02-28 12:54:00,39.7,25.3,29.75,West,275,12.0,14.0,56,0.00,,SKC,0.00,223.00,VWS V14.01,2013-02-28 17:54:00,
2013-02-28 12:56:00,39.7,25.3,29.75,West,263,9.0,14.0,56,0.00,,SKC,0.00,213.00,VWS V14.01,2013-02-28 17:56:00,
2013-02-28 12:57:00,39.7,24.9,29.75,West,266,9.0,14.0,55,0.00,,SKC,0.00,209.00,VWS V14.01,2013-02-28 17:57:00,
2013-02-28 12:59:00,39.7,25.3,29.75,WNW,292,1.0,14.0,56,0.00,,SKC,0.00,211.00,VWS V14.01,2013-02-28 17:59:00,
2013-02-28 13:01:00,39.9,25.9,29.75,NW,306,4.0,14.0,57,0.00,,SKC,0.00,211.00,VWS V14.01,2013-02-28 18:01:00,
2013-02-28 13:02:00,40.0,25.6,29.75,WNW,297,8.0,8.0,56,0.00,,SKC,0.00,214.00,VWS V14.01,2013-02-28 18:02:00,
2013-02-28 13:04:00,40.1,25.2,29.75,SW,234,4.0,9.0,55,0.00,,SKC,0.00,192.00,VWS V14.01,2013-02-28 18:04:00,
2013-02-28 13:05:00,40.2,25.8,29.75,West,260,5.0,12.0,56,0.00,,SKC,0.00,188.00,VWS V14.01,2013-02-28 18:05:00,
2013-02-28 13:06:00,40.2,24.9,29.75,SW,234,3.0,12.0,54,0.00,,SKC,0.00,197.00,VWS V14.01,2013-02-28 18:06:00,
2013-02-28 13:07:00,40.2,25.3,29.75,WNW,284,1.0,12.0,55,0.00,,SKC,0.00,197.00,VWS V14.01,2013-02-28 18:07:00,
2013-02-28 13:09:00,40.3,25.4,29.75,West,262,3.0,12.0,55,0.00,,SKC,0.00,174.00,VWS V14.01,2013-02-28 18:09:00,
2013-02-28 13:10:00,40.3,25.4,29.75,WSW,242,5.0,12.0,55,0.00,,SKC,0.00,167.00,VWS V14.01,2013-02-28 18:10:00,
2013-02-28 13:11:00,40.4,25.5,29.75,WSW,246,1.0,12.0,55,0.00,,SKC,0.00,167.00,VWS V14.01,2013-02-28 18:11:00,
2013-02-28 13:12:00,40.4,25.5,29.75,SW,228,4.0,12.0,55,0.00,,SKC,0.00,169.00,VWS V14.01,2013-02-28 18:12:00,
2013-02-28 13:14:00,40.4,25.5,29.75,West,275,8.0,12.0,55,0.00,,SKC,0.00,162.00,VWS V14.01,2013-02-28 18:14:00,
2013-02-28 13:15:00,40.4,25.5,29.75,SW,229,9.0,12.0,55,0.00,,SKC,0.00,156.00,VWS V14.01,2013-02-28 18:15:00,
2013-02-28 13:16:00,40.4,25.1,29.75,NW,313,8.0,14.0,54,0.00,,SKC,0.00,151.00,VWS V14.01,2013-02-28 18:16:00,
2013-02-28 13:17:00,40.3,25.0,29.75,West,259,5.0,14.0,54,0.00,,SKC,0.00,156.00,VWS V14.01,2013-02-28 18:17:00,
2013-02-28 13:19:00,40.2,24.9,29.75,West,271,12.0,14.0,54,0.00,,SKC,0.00,179.00,VWS V14.01,2013-02-28 18:19:00,
2013-02-28 13:20:00,40.2,24.9,29.75,West,262,9.0,14.0,54,0.00,,SKC,0.00,174.00,VWS V14.01,2013-02-28 18:20:00,
2013-02-28 13:21:00,40.2,24.9,29.75,West,275,7.0,14.0,54,0.00,,SKC,0.00,172.00,VWS V14.01,2013-02-28 18:21:00,
2013-02-28 13:23:00,40.2,24.9,29.75,SW,229,4.0,14.0,54,0.00,,SKC,0.00,171.00,VWS V14.01,2013-02-28 18:23:00,
2013-02-28 13:24:00,40.4,25.5,29.75,West,274,11.0,14.0,55,0.00,,SKC,0.00,156.00,VWS V14.01,2013-02-28 18:24:00,
2013-02-28 13:25:00,40.4,25.1,29.75,West,263,12.0,14.0,54,0.00,,SKC,0.00,148.00,VWS V14.01,2013-02-28 18:25:00,
2013-02-28 13:26:00,40.3,25.0,29.75,West,271,11.0,15.0,54,0.00,,SKC,0.00,142.00,VWS V14.01,2013-02-28 18:26:00,
2013-02-28 13:28:00,40.3,25.0,29.76,WNW,297,3.0,15.0,54,0.00,,SKC,0.00,149.00,VWS V14.01,2013-02-28 18:28:00,
2013-02-28 13:29:00,40.3,25.0,29.75,NNW,335,13.0,15.0,54,0.00,,SKC,0.00,165.00,VWS V14.01,2013-02-28 18:29:00,
2013-02-28 13:31:00,40.3,24.5,29.75,NNW,328,5.0,15.0,53,0.00,,SKC,0.00,163.00,VWS V14.01,2013-02-28 18:31:00,
2013-02-28 13:32:00,40.3,25.4,29.75,WSW,247,4.0,4.0,55,0.00,,SKC,0.00,163.00,VWS V14.01,2013-02-28 18:32:00,
2013-02-28 13:33:00,40.4,25.5,29.76,West,269,3.0,5.0,55,0.00,,SKC,0.00,165.00,VWS V14.01,2013-02-28 18:33:00,
2013-02-28 13:35:00,40.5,25.6,29.75,WNW,299,5.0,10.0,55,0.00,,SKC,0.00,181.00,VWS V14.01,2013-02-28 18:35:00,
2013-02-28 13:36:00,40.5,25.6,29.76,West,271,6.0,10.0,55,0.00,,SKC,0.00,181.00,VWS V14.01,2013-02-28 18:36:00,
2013-02-28 13:37:00,40.5,25.6,29.76,West,268,6.0,10.0,55,0.00,,SKC,0.00,181.00,VWS V14.01,2013-02-28 18:37:00,
2013-02-28 13:38:00,40.5,25.2,29.76,WNW,284,13.0,13.0,54,0.00,,SKC,0.00,190.00,VWS V14.01,2013-02-28 18:38:00,
2013-02-28 13:40:00,40.5,24.7,29.75,West,273,6.0,13.0,53,0.00,,SKC,0.00,223.00,VWS V14.01,2013-02-28 18:40:00,
2013-02-28 13:41:00,40.6,24.8,29.76,West,275,13.0,13.0,53,0.00,,SKC,0.00,221.00,VWS V14.01,2013-02-28 18:41:00,
2013-02-28 13:42:00,40.6,24.8,29.75,SW,233,8.0,13.0,53,0.00,,SKC,0.00,214.00,VWS V14.01,2013-02-28 18:42:00,
2013-02-28 13:43:00,40.6,25.3,29.75,West,275,7.0,13.0,54,0.00,,SKC,0.00,214.00,VWS V14.01,2013-02-28 18:43:00,
2013-02-28 13:45:00,40.6,25.3,29.76,NNW,340,3.0,13.0,54,0.00,,SKC,0.00,197.00,VWS V14.01,2013-02-28 18:45:00,
2013-02-28 13:47:00,40.6,25.7,29.76,NNW,331,7.0,13.0,55,0.00,,SKC,0.00,172.00,VWS V14.01,2013-02-28 18:47:00,
2013-02-28 13:48:00,40.7,25.4,29.76,West,278,5.0,13.0,54,0.00,,SKC,0.00,178.00,VWS V14.01,2013-02-28 18:48:00,
2013-02-28 13:50:00,40.7,25.4,29.76,WNW,284,7.0,13.0,54,0.00,,SKC,0.00,251.00,VWS V14.01,2013-02-28 18:50:00,
2013-02-28 13:52:00,40.7,25.4,29.76,West,263,8.0,14.0,54,0.00,,SKC,0.00,288.00,VWS V14.01,2013-02-28 18:52:00,
2013-02-28 13:53:00,40.7,25.4,29.76,NW,312,10.0,14.0,54,0.00,,SKC,0.00,279.00,VWS V14.01,2013-02-28 18:53:00,
2013-02-28 13:55:00,40.7,25.4,29.76,West,270,4.0,14.0,54,0.00,,SKC,0.00,190.00,VWS V14.01,2013-02-28 18:55:00,
2013-02-28 13:57:00,40.7,24.9,29.76,WSW,258,7.0,14.0,53,0.00,,SKC,0.00,183.00,VWS V14.01,2013-02-28 18:57:00,
2013-02-28 13:58:00,40.6,24.8,29.76,West,263,6.0,14.0,53,0.00,,SKC,0.00,179.00,VWS V14.01,2013-02-28 18:58:00,
2013-02-28 14:00:00,40.6,25.3,29.75,WNW,284,6.0,14.0,54,0.00,,SKC,0.00,160.00,VWS V14.01,2013-02-28 19:00:00,
2013-02-28 14:02:00,40.5,24.7,29.75,West,259,12.0,18.0,53,0.00,,SKC,0.00,163.00,VWS V14.01,2013-02-28 19:02:00,
2013-02-28 14:03:00,40.4,25.1,29.75,West,265,6.0,18.0,54,0.00,,SKC,0.00,158.00,VWS V14.01,2013-02-28 19:03:00,
2013-02-28 14:04:00,40.4,25.1,29.76,West,276,8.0,18.0,54,0.00,,SKC,0.00,153.00,VWS V14.01,2013-02-28 19:04:00,
2013-02-28 14:05:00,40.4,25.5,29.76,West,265,4.0,18.0,55,0.00,,SKC,0.00,158.00,VWS V14.01,2013-02-28 19:05:00,
2013-02-28 14:07:00,40.4,25.1,29.76,WSW,239,6.0,18.0,54,0.00,,SKC,0.00,163.00,VWS V14.01,2013-02-28 19:07:00,
2013-02-28 14:08:00,40.4,25.1,29.76,SW,233,6.0,18.0,54,0.00,,SKC,0.00,163.00,VWS V14.01,2013-02-28 19:08:00,
2013-02-28 14:09:00,40.4,25.5,29.76,West,261,6.0,18.0,55,0.00,,SKC,0.00,156.00,VWS V14.01,2013-02-28 19:09:00,
2013-02-28 14:10:00,40.4,25.1,29.76,WNW,290,3.0,18.0,54,0.00,,SKC,0.00,156.00,VWS V14.01,2013-02-28 19:10:00,
2013-02-28 14:12:00,40.4,25.1,29.76,West,281,4.0,18.0,54,0.00,,SKC,0.00,160.00,VWS V14.01,2013-02-28 19:12:00,
2013-02-28 14:13:00,40.4,25.1,29.76,WNW,284,1.0,18.0,54,0.00,,SKC,0.00,162.00,VWS V14.01,2013-02-28 19:13:00,
2013-02-28 14:14:00,40.5,25.6,29.76,WNW,286,4.0,18.0,55,0.00,,SKC,0.00,162.00,VWS V14.01,2013-02-28 19:14:00,
2013-02-28 14:15:00,40.5,25.6,29.76,West,271,7.0,18.0,55,0.00,,SKC,0.00,176.00,VWS V14.01,2013-02-28 19:15:00,
2013-02-28 14:17:00,40.5,25.2,29.76,West,259,2.0,18.0,54,0.00,,SKC,0.00,183.00,VWS V14.01,2013-02-28 19:17:00,
2013-02-28 14:18:00,40.6,25.7,29.76,WSW,238,3.0,18.0,55,0.00,,SKC,0.00,185.00,VWS V14.01,2013-02-28 19:18:00,
2013-02-28 14:19:00,40.6,25.7,29.76,WNW,288,4.0,18.0,55,0.00,,SKC,0.00,197.00,VWS V14.01,2013-02-28 19:19:00,
2013-02-28 14:20:00,40.6,26.1,29.76,NNW,329,2.0,18.0,56,0.00,,SKC,0.00,181.00,VWS V14.01,2013-02-28 19:20:00,
2013-02-28 14:23:00,40.7,26.2,29.76,West,279,4.0,18.0,56,0.00,,SKC,0.00,202.00,VWS V14.01,2013-02-28 19:23:00,
2013-02-28 14:25:00,40.8,25.9,29.76,WSW,246,5.0,18.0,55,0.00,,SKC,0.00,227.00,VWS V14.01,2013-02-28 19:25:00,
2013-02-28 14:26:00,40.7,25.8,29.76,West,260,7.0,18.0,55,0.00,,SKC,0.00,246.00,VWS V14.01,2013-02-28 19:26:00,
2013-02-28 14:28:00,40.6,25.7,29.76,SW,229,9.0,18.0,55,0.00,,SKC,0.00,248.00,VWS V14.01,2013-02-28 19:28:00,
2013-02-28 14:29:00,40.6,25.7,29.76,SW,232,10.0,18.0,55,0.00,,SKC,0.00,241.00,VWS V14.01,2013-02-28 19:29:00,
2013-02-28 14:30:00,40.6,25.7,29.76,WSW,238,3.0,18.0,55,0.00,,SKC,0.00,243.00,VWS V14.01,2013-02-28 19:30:00,
2013-02-28 14:31:00,40.5,25.6,29.76,WNW,299,6.0,18.0,55,0.00,,SKC,0.00,253.00,VWS V14.01,2013-02-28 19:31:00,
2013-02-28 14:33:00,40.6,26.1,29.76,West,277,5.0,6.0,56,0.00,,SKC,0.00,236.00,VWS V14.01,2013-02-28 19:33:00,
2013-02-28 14:34:00,40.6,26.1,29.76,WNW,286,10.0,15.0,56,0.00,,SKC,0.00,234.00,VWS V14.01,2013-02-28 19:34:00,
2013-02-28 14:35:00,40.7,26.2,29.76,West,281,10.0,15.0,56,0.00,,SKC,0.00,265.00,VWS V14.01,2013-02-28 19:35:00,
2013-02-28 14:36:00,40.7,25.8,29.75,WNW,284,11.0,15.0,55,0.00,,SKC,0.00,255.00,VWS V14.01,2013-02-28 19:36:00,
2013-02-28 14:38:00,40.7,25.8,29.76,West,267,6.0,17.0,55,0.00,,SKC,0.00,214.00,VWS V14.01,2013-02-28 19:38:00,
2013-02-28 14:39:00,40.7,25.8,29.76,WNW,300,8.0,17.0,55,0.00,,SKC,0.00,213.00,VWS V14.01,2013-02-28 19:39:00,
2013-02-28 14:40:00,40.6,26.1,29.76,WNW,300,5.0,17.0,56,0.00,,SKC,0.00,206.00,VWS V14.01,2013-02-28 19:40:00,
2013-02-28 14:41:00,40.6,26.1,29.76,North,355,6.0,17.0,56,0.00,,SKC,0.00,185.00,VWS V14.01,2013-02-28 19:41:00,
2013-02-28 14:43:00,40.6,26.1,29.76,NW,317,4.0,17.0,56,0.00,,SKC,0.00,204.00,VWS V14.01,2013-02-28 19:43:00,
2013-02-28 14:44:00,40.6,26.1,29.76,WSW,239,4.0,17.0,56,0.00,,SKC,0.00,197.00,VWS V14.01,2013-02-28 19:44:00,
2013-02-28 14:45:00,40.7,26.2,29.76,NNW,344,1.0,17.0,56,0.00,,SKC,0.00,192.00,VWS V14.01,2013-02-28 19:45:00,
2013-02-28 14:46:00,40.7,26.2,29.76,West,261,4.0,17.0,56,0.00,,SKC,0.00,192.00,VWS V14.01,2013-02-28 19:46:00,
2013-02-28 14:49:00,40.7,25.8,29.76,WSW,242,9.0,17.0,55,0.00,,SKC,0.00,174.00,VWS V14.01,2013-02-28 19:49:00,
2013-02-28 14:51:00,40.5,25.6,29.76,WNW,298,4.0,17.0,55,0.00,,SKC,0.00,160.00,VWS V14.01,2013-02-28 19:51:00,
2013-02-28 14:54:00,40.5,26.0,29.76,WSW,238,5.0,17.0,56,0.00,,SKC,0.00,141.00,VWS V14.01,2013-02-28 19:54:00,
2013-02-28 14:56:00,40.4,26.0,29.76,WSW,242,7.0,17.0,56,0.00,,SKC,0.00,128.00,VWS V14.01,2013-02-28 19:56:00,
2013-02-28 14:59:00,40.4,26.0,29.76,SW,222,10.0,17.0,56,0.00,,SKC,0.00,141.00,VWS V14.01,2013-02-28 19:59:00,
2013-02-28 15:00:00,40.4,26.4,29.77,WNW,288,7.0,17.0,57,0.00,,SKC,0.00,137.00,VWS V14.01,2013-02-28 20:00:00,
2013-02-28 15:01:00,40.4,26.0,29.76,SW,233,9.0,12.0,56,0.00,,SKC,0.00,139.00,VWS V14.01,2013-02-28 20:01:00,
2013-02-28 15:05:00,40.2,26.2,29.76,North,5,14.0,17.0,57,0.00,,SKC,0.00,148.00,VWS V14.01,2013-02-28 20:05:00,
2013-02-28 15:06:00,40.2,26.2,29.77,WSW,241,6.0,17.0,57,0.00,,SKC,0.00,148.00,VWS V14.01,2013-02-28 20:06:00,
2013-02-28 15:10:00,40.2,26.2,29.77,NNE,13,7.0,17.0,57,0.00,,SKC,0.00,144.00,VWS V14.01,2013-02-28 20:10:00,
2013-02-28 15:11:00,40.1,26.1,29.77,West,281,13.0,17.0,57,0.00,,SKC,0.00,149.00,VWS V14.01,2013-02-28 20:11:00,
2013-02-28 15:15:00,40.1,26.1,29.77,West,269,7.0,17.0,57,0.00,,SKC,0.00,139.00,VWS V14.01,2013-02-28 20:15:00,
2013-02-28 15:16:00,40.1,26.1,29.77,WSW,257,5.0,17.0,57,0.00,,SKC,0.00,139.00,VWS V14.01,2013-02-28 20:16:00,
2013-02-28 15:20:00,40.2,26.6,29.77,South,182,5.0,17.0,58,0.00,,SKC,0.00,125.00,VWS V14.01,2013-02-28 20:20:00,
2013-02-28 15:21:00,40.2,26.6,29.77,WSW,238,3.0,17.0,58,0.00,,SKC,0.00,125.00,VWS V14.01,2013-02-28 20:21:00,
2013-02-28 15:22:00,40.2,26.2,29.77,WNW,284,0.0,17.0,57,0.00,,SKC,0.00,139.00,VWS V14.01,2013-02-28 20:22:00,
2013-02-28 15:25:00,40.4,26.8,29.77,WNW,300,7.0,17.0,58,0.00,,SKC,0.00,144.00,VWS V14.01,2013-02-28 20:25:00,
2013-02-28 15:26:00,40.4,26.8,29.77,NW,304,7.0,17.0,58,0.00,,SKC,0.00,135.00,VWS V14.01,2013-02-28 20:26:00,
2013-02-28 15:27:00,40.4,26.8,29.77,NNW,341,9.0,17.0,58,0.00,,SKC,0.00,130.00,VWS V14.01,2013-02-28 20:27:00,
2013-02-28 15:31:00,40.4,26.8,29.77,West,281,4.0,17.0,58,0.00,,SKC,0.00,127.00,VWS V14.01,2013-02-28 20:31:00,
2013-02-28 15:32:00,40.4,26.8,29.77,WSW,248,7.0,7.0,58,0.00,,SKC,0.00,146.00,VWS V14.01,2013-02-28 20:32:00,
2013-02-28 15:36:00,40.3,26.7,29.77,SW,221,6.0,15.0,58,0.00,,SKC,0.00,149.00,VWS V14.01,2013-02-28 20:36:00,
2013-02-28 15:37:00,40.3,26.7,29.77,WSW,254,7.0,15.0,58,0.00,,SKC,0.00,253.00,VWS V14.01,2013-02-28 20:37:00,
2013-02-28 15:38:00,40.5,27.3,29.77,WNW,283,5.0,15.0,59,0.00,,SKC,0.00,155.00,VWS V14.01,2013-02-28 20:38:00,
2013-02-28 15:41:00,40.7,27.1,29.77,WNW,290,6.0,15.0,58,0.00,,SKC,0.00,169.00,VWS V14.01,2013-02-28 20:41:00,
2013-02-28 15:42:00,40.7,27.1,29.77,WSW,244,4.0,15.0,58,0.00,,SKC,0.00,195.00,VWS V14.01,2013-02-28 20:42:00,
2013-02-28 15:43:00,40.7,27.1,29.77,NW,315,9.0,15.0,58,0.00,,SKC,0.00,162.00,VWS V14.01,2013-02-28 20:43:00,
2013-02-28 15:46:00,40.4,26.8,29.77,West,263,7.0,15.0,58,0.00,,SKC,0.00,139.00,VWS V14.01,2013-02-28 20:46:00,
2013-02-28 15:47:00,40.2,26.6,29.77,West,281,6.0,15.0,58,0.00,,SKC,0.00,158.00,VWS V14.01,2013-02-28 20:47:00,
2013-02-28 15:48:00,40.1,26.5,29.77,West,271,4.0,15.0,58,0.00,,SKC,0.00,153.00,VWS V14.01,2013-02-28 20:48:00,
2013-02-28 15:51:00,40.1,26.9,29.77,NNW,346,8.0,15.0,59,0.00,,SKC,0.00,162.00,VWS V14.01,2013-02-28 20:51:00,
2013-02-28 15:52:00,40.1,26.9,29.78,SW,234,5.0,15.0,59,0.00,,SKC,0.00,155.00,VWS V14.01,2013-02-28 20:52:00,
2013-02-28 15:53:00,40.0,26.8,29.78,SW,225,3.0,15.0,59,0.00,,SKC,0.00,132.00,VWS V14.01,2013-02-28 20:53:00,
2013-02-28 15:56:00,39.9,26.8,29.78,WSW,248,9.0,15.0,59,0.00,,SKC,0.00,155.00,VWS V14.01,2013-02-28 20:56:00,
2013-02-28 15:57:00,39.8,26.7,29.77,WNW,291,10.0,15.0,59,0.00,,SKC,0.00,135.00,VWS V14.01,2013-02-28 20:57:00,
2013-02-28 15:58:00,39.8,26.7,29.77,NNW,348,9.0,15.0,59,0.00,,SKC,0.00,118.00,VWS V14.01,2013-02-28 20:58:00,
2013-02-28 16:01:00,39.6,26.5,29.78,WNW,302,2.0,7.0,59,0.00,,SKC,0.00,100.00,VWS V14.01,2013-02-28 21:01:00,
2013-02-28 16:02:00,39.6,26.5,29.78,SW,234,4.0,7.0,59,0.00,,SKC,0.00,86.00,VWS V14.01,2013-02-28 21:02:00,
2013-02-28 16:03:00,39.5,26.8,29.78,NW,309,4.0,7.0,60,0.00,,SKC,0.00,86.00,VWS V14.01,2013-02-28 21:03:00,
2013-02-28 16:06:00,39.5,26.8,29.78,West,279,9.0,11.0,60,0.00,,SKC,0.00,91.00,VWS V14.01,2013-02-28 21:06:00,
2013-02-28 16:07:00,39.5,26.8,29.78,West,276,11.0,15.0,60,0.00,,SKC,0.00,90.00,VWS V14.01,2013-02-28 21:07:00,
2013-02-28 16:08:00,39.5,26.8,29.78,NNW,329,3.0,15.0,60,0.00,,SKC,0.00,84.00,VWS V14.01,2013-02-28 21:08:00,
2013-02-28 16:11:00,39.4,26.7,29.78,SW,234,4.0,15.0,60,0.00,,SKC,0.00,84.00,VWS V14.01,2013-02-28 21:11:00,
2013-02-28 16:12:00,39.3,27.0,29.78,SW,230,8.0,15.0,61,0.00,,SKC,0.00,83.00,VWS V14.01,2013-02-28 21:12:00,
2013-02-28 16:13:00,39.3,27.0,29.78,SW,232,6.0,15.0,61,0.00,,SKC,0.00,81.00,VWS V14.01,2013-02-28 21:13:00,
2013-02-28 16:17:00,39.2,27.3,29.78,SW,231,6.0,15.0,62,0.00,,SKC,0.00,77.00,VWS V14.01,2013-02-28 21:17:00,
2013-02-28 16:18:00,39.1,26.8,29.78,WNW,300,3.0,15.0,61,0.00,,SKC,0.00,79.00,VWS V14.01,2013-02-28 21:18:00,
2013-02-28 16:19:00,39.1,27.2,29.78,West,269,12.0,15.0,62,0.00,,SKC,0.00,86.00,VWS V14.01,2013-02-28 21:19:00,
2013-02-28 16:22:00,38.9,27.0,29.78,WNW,300,4.0,15.0,62,0.00,,SKC,0.00,77.00,VWS V14.01,2013-02-28 21:22:00,
2013-02-28 16:23:00,38.9,27.0,29.78,SW,227,6.0,15.0,62,0.00,,SKC,0.00,77.00,VWS V14.01,2013-02-28 21:23:00,
2013-02-28 16:24:00,38.9,27.0,29.78,West,267,6.0,15.0,62,0.00,,SKC,0.00,76.00,VWS V14.01,2013-02-28 21:24:00,
2013-02-28 16:27:00,38.8,26.9,29.78,NW,313,1.0,15.0,62,0.00,,SKC,0.00,72.00,VWS V14.01,2013-02-28 21:27:00,
2013-02-28 16:28:00,38.8,26.9,29.78,WSW,240,2.0,15.0,62,0.00,,SKC,0.00,74.00,VWS V14.01,2013-02-28 21:28:00,
2013-02-28 16:29:00,38.9,27.4,29.78,SW,236,4.0,15.0,63,0.00,,SKC,0.00,77.00,VWS V14.01,2013-02-28 21:29:00,
2013-02-28 16:32:00,38.8,26.9,29.78,WSW,240,4.0,7.0,62,0.00,,SKC,0.00,84.00,VWS V14.01,2013-02-28 21:32:00,
2013-02-28 16:33:00,38.8,27.3,29.78,WSW,252,5.0,7.0,63,0.00,,SKC,0.00,86.00,VWS V14.01,2013-02-28 21:33:00,
2013-02-28 16:34:00,38.8,26.9,29.78,WSW,245,5.0,7.0,62,0.00,,SKC,0.00,86.00,VWS V14.01,2013-02-28 21:34:00,
2013-02-28 16:37:00,38.7,27.2,29.78,NW,304,6.0,7.0,63,0.00,,SKC,0.00,79.00,VWS V14.01,2013-02-28 21:37:00,
2013-02-28 16:38:00,38.7,27.2,29.78,WNW,295,7.0,7.0,63,0.00,,SKC,0.00,84.00,VWS V14.01,2013-02-28 21:38:00,
2013-02-28 16:39:00,38.7,27.2,29.78,West,264,5.0,7.0,63,0.00,,SKC,0.00,84.00,VWS V14.01,2013-02-28 21:39:00,
2013-02-28 16:40:00,38.7,27.2,29.78,SW,234,1.0,7.0,63,0.00,,SKC,0.00,90.00,VWS V14.01,2013-02-28 21:40:00,
2013-02-28 16:42:00,38.7,26.8,29.78,SW,234,4.0,13.0,62,0.00,,SKC,0.00,81.00,VWS V14.01,2013-02-28 21:42:00,
2013-02-28 16:43:00,38.7,27.2,29.78,West,261,6.0,13.0,63,0.00,,SKC,0.00,83.00,VWS V14.01,2013-02-28 21:43:00,
2013-02-28 16:44:00,38.7,27.2,29.78,North,5,8.0,13.0,63,0.00,,SKC,0.00,83.00,VWS V14.01,2013-02-28 21:44:00,
2013-02-28 16:45:00,38.7,27.2,29.78,West,275,7.0,13.0,63,0.00,,SKC,0.00,83.00,VWS V14.01,2013-02-28 21:45:00,
2013-02-28 16:48:00,38.7,27.2,29.78,WSW,240,13.0,13.0,63,0.00,,SKC,0.00,84.00,VWS V14.01,2013-02-28 21:48:00,
2013-02-28 16:49:00,38.6,27.1,29.78,SW,222,14.0,20.0,63,0.00,,SKC,0.00,81.00,VWS V14.01,2013-02-28 21:49:00,
2013-02-28 16:50:00,38.6,27.1,29.78,West,281,4.0,20.0,63,0.00,,SKC,0.00,86.00,VWS V14.01,2013-02-28 21:50:00,
2013-02-28 16:53:00,38.5,27.0,29.78,WNW,300,3.0,20.0,63,0.00,,SKC,0.00,81.00,VWS V14.01,2013-02-28 21:53:00,
2013-02-28 16:54:00,38.5,27.0,29.78,WSW,254,3.0,20.0,63,0.00,,SKC,0.00,83.00,VWS V14.01,2013-02-28 21:54:00,
2013-02-28 16:55:00,38.5,27.0,29.78,NW,319,3.0,20.0,63,0.00,,SKC,0.00,83.00,VWS V14.01,2013-02-28 21:55:00,
2013-02-28 16:58:00,38.6,27.1,29.78,WNW,295,10.0,20.0,63,0.00,,SKC,0.00,90.00,VWS V14.01,2013-02-28 21:58:00,
2013-02-28 16:59:00,38.5,27.0,29.78,WSW,244,6.0,20.0,63,0.00,,SKC,0.00,91.00,VWS V14.01,2013-02-28 21:59:00,
2013-02-28 17:00:00,38.5,27.0,29.79,WSW,244,1.0,20.0,63,0.00,,SKC,0.00,97.00,VWS V14.01,2013-02-28 22:00:00,
2013-02-28 17:03:00,38.5,27.0,29.79,WSW,243,5.0,7.0,63,0.00,,SKC,0.00,88.00,VWS V14.01,2013-02-28 22:03:00,
2013-02-28 17:04:00,38.5,27.0,29.79,WSW,247,8.0,9.0,63,0.00,,SKC,0.00,91.00,VWS V14.01,2013-02-28 22:04:00,
2013-02-28 17:05:00,38.5,27.0,29.79,West,265,9.0,9.0,63,0.00,,SKC,0.00,91.00,VWS V14.01,2013-02-28 22:05:00,
2013-02-28 17:08:00,38.5,27.0,29.79,WSW,250,13.0,16.0,63,0.00,,SKC,0.00,76.00,VWS V14.01,2013-02-28 22:08:00,
2013-02-28 17:09:00,38.4,26.5,29.79,WSW,240,10.0,16.0,62,0.00,,SKC,0.00,77.00,VWS V14.01,2013-02-28 22:09:00,
2013-02-28 17:10:00,38.4,26.5,29.79,SW,228,4.0,16.0,62,0.00,,SKC,0.00,77.00,VWS V14.01,2013-02-28 22:10:00,
2013-02-28 17:11:00,38.4,26.9,29.79,West,260,6.0,16.0,63,0.00,,SKC,0.00,83.00,VWS V14.01,2013-02-28 22:11:00,
2013-02-28 17:13:00,38.4,26.9,29.79,NW,316,7.0,16.0,63,0.00,,SKC,0.00,70.00,VWS V14.01,2013-02-28 22:13:00,
2013-02-28 17:14:00,38.4,26.9,29.79,NW,306,5.0,16.0,63,0.00,,SKC,0.00,67.00,VWS V14.01,2013-02-28 22:14:00,
2013-02-28 17:15:00,38.4,26.9,29.79,WNW,294,2.0,16.0,63,0.00,,SKC,0.00,67.00,VWS V14.01,2013-02-28 22:15:00,
2013-02-28 17:17:00,38.3,26.8,29.79,WSW,244,7.0,16.0,63,0.00,,SKC,0.00,69.00,VWS V14.01,2013-02-28 22:17:00,
2013-02-28 17:18:00,38.4,26.9,29.79,West,271,2.0,16.0,63,0.00,,SKC,0.00,62.00,VWS V14.01,2013-02-28 22:18:00,
2013-02-28 17:19:00,38.3,26.8,29.80,West,271,4.0,16.0,63,0.00,,SKC,0.00,56.00,VWS V14.01,2013-02-28 22:19:00,
2013-02-28 17:20:00,38.3,26.8,29.80,NNW,336,5.0,16.0,63,0.00,,SKC,0.00,56.00,VWS V14.01,2013-02-28 22:20:00,
2013-02-28 17:22:00,38.3,26.8,29.80,WNW,284,4.0,16.0,63,0.00,,SKC,0.00,60.00,VWS V14.01,2013-02-28 22:22:00,
2013-02-28 17:24:00,38.3,26.8,29.80,WSW,252,3.0,16.0,63,0.00,,SKC,0.00,65.00,VWS V14.01,2013-02-28 22:24:00,
2013-02-28 17:25:00,38.3,26.8,29.80,SW,235,1.0,16.0,63,0.00,,SKC,0.00,62.00,VWS V14.01,2013-02-28 22:25:00,
2013-02-28 17:27:00,38.4,26.9,29.80,West,275,5.0,16.0,63,0.00,,SKC,0.00,56.00,VWS V14.01,2013-02-28 22:27:00,
2013-02-28 17:29:00,38.4,26.9,29.80,SW,219,5.0,16.0,63,0.00,,SKC,0.00,56.00,VWS V14.01,2013-02-28 22:29:00,
2013-02-28 17:30:00,38.3,26.8,29.80,NW,325,5.0,16.0,63,0.00,,SKC,0.00,51.00,VWS V14.01,2013-02-28 22:30:00,
2013-02-28 17:32:00,38.3,26.8,29.80,WSW,257,6.0,8.0,63,0.00,,SKC,0.00,53.00,VWS V14.01,2013-02-28 22:32:00,
2013-02-28 17:34:00,38.3,26.8,29.80,WSW,240,6.0,14.0,63,0.00,,SKC,0.00,56.00,VWS V14.01,2013-02-28 22:34:00,
2013-02-28 17:35:00,38.3,26.8,29.80,West,274,10.0,14.0,63,0.00,,SKC,0.00,53.00,VWS V14.01,2013-02-28 22:35:00,
2013-02-28 17:37:00,38.2,26.7,29.80,West,271,8.0,15.0,63,0.00,,SKC,0.00,46.00,VWS V14.01,2013-02-28 22:37:00,
2013-02-28 17:40:00,38.2,26.7,29.80,West,268,7.0,15.0,63,0.00,,SKC,0.00,33.00,VWS V14.01,2013-02-28 22:40:00,
2013-02-28 17:42:00,38.1,26.6,29.81,WSW,252,6.0,15.0,63,0.00,,SKC,0.00,28.00,VWS V14.01,2013-02-28 22:42:00,
2013-02-28 17:45:00,38.1,27.0,29.80,WNW,294,6.0,15.0,64,0.00,,SKC,0.00,16.00,VWS V14.01,2013-02-28 22:45:00,
2013-02-28 17:46:00,38.0,26.9,29.80,South,178,3.0,15.0,64,0.00,,SKC,0.00,12.00,VWS V14.01,2013-02-28 22:46:00,
2013-02-28 17:47:00,38.0,26.9,29.81,WSW,256,8.0,15.0,64,0.00,,SKC,0.00,11.00,VWS V14.01,2013-02-28 22:47:00,
2013-02-28 17:50:00,38.0,26.9,29.81,WNW,298,6.0,15.0,64,0.00,,SKC,0.00,9.00,VWS V14.01,2013-02-28 22:50:00,
2013-02-28 17:51:00,38.0,26.9,29.81,West,272,6.0,15.0,64,0.00,,SKC,0.00,11.00,VWS V14.01,2013-02-28 22:51:00,
2013-02-28 17:52:00,37.9,26.8,29.81,West,271,6.0,15.0,64,0.00,,SKC,0.00,11.00,VWS V14.01,2013-02-28 22:52:00,
2013-02-28 17:55:00,37.9,26.8,29.81,SW,223,4.0,15.0,64,0.00,,SKC,0.00,11.00,VWS V14.01,2013-02-28 22:55:00,
2013-02-28 17:56:00,37.9,26.8,29.81,WNW,282,4.0,15.0,64,0.00,,SKC,0.00,11.00,VWS V14.01,2013-02-28 22:56:00,
2013-02-28 17:57:00,37.9,27.2,29.81,WNW,294,9.0,15.0,65,0.00,,SKC,0.00,9.00,VWS V14.01,2013-02-28 22:57:00,
2013-02-28 18:00:00,37.9,26.8,29.81,West,273,9.0,15.0,64,0.00,,SKC,0.00,7.00,VWS V14.01,2013-02-28 23:00:00,
2013-02-28 18:01:00,37.8,26.7,29.81,WNW,286,10.0,15.0,64,0.00,,SKC,0.00,7.00,VWS V14.01,2013-02-28 23:01:00,
2013-02-28 18:02:00,37.8,26.7,29.81,West,272,10.0,14.0,64,0.00,,SKC,0.00,7.00,VWS V14.01,2013-02-28 23:02:00,
2013-02-28 18:05:00,37.8,27.1,29.81,West,260,8.0,17.0,65,0.00,,SKC,0.00,5.00,VWS V14.01,2013-02-28 23:05:00,
2013-02-28 18:06:00,37.8,26.7,29.81,NNW,342,8.0,17.0,64,0.00,,SKC,0.00,5.00,VWS V14.01,2013-02-28 23:06:00,
2013-02-28 18:07:00,37.8,27.1,29.82,SSW,211,3.0,17.0,65,0.00,,SKC,0.00,0.00,VWS V14.01,2013-02-28 23:07:00,
2013-02-28 18:10:00,37.8,27.1,29.82,WSW,246,9.0,17.0,65,0.00,,SKC,0.00,0.00,VWS V14.01,2013-02-28 23:10:00,
2013-02-28 18:11:00,37.8,27.1,29.82,WNW,290,11.0,17.0,65,0.00,,SKC,0.00,0.00,VWS V14.01,2013-02-28 23:11:00,
2013-02-28 18:12:00,37.8,27.1,29.82,WSW,242,8.0,17.0,65,0.00,,SKC,0.00,0.00,VWS V14.01,2013-02-28 23:12:00,
2013-02-28 18:15:00,37.7,27.0,29.82,WSW,255,8.0,17.0,65,0.00,,SKC,0.00,0.00,VWS V14.01,2013-02-28 23:15:00,
2013-02-28 18:16:00,37.7,27.0,29.82,West,275,5.0,17.0,65,0.00,,SKC,0.00,0.00,VWS V14.01,2013-02-28 23:16:00,
2013-02-28 18:17:00,37.7,27.0,29.82,NNW,339,3.0,17.0,65,0.00,,SKC,0.00,0.00,VWS V14.01,2013-02-28 23:17:00,
2013-02-28 18:21:00,37.7,27.0,29.82,West,265,15.0,17.0,65,0.00,,SKC,0.00,0.00,VWS V14.01,2013-02-28 23:21:00,
2013-02-28 18:22:00,37.7,27.0,29.82,WSW,241,5.0,17.0,65,0.00,,SKC,0.00,0.00,VWS V14.01,2013-02-28 23:22:00,
2013-02-28 18:26:00,37.6,26.9,29.82,West,279,3.0,17.0,65,0.00,,SKC,0.00,0.00,VWS V14.01,2013-02-28 23:26:00,
2013-02-28 18:27:00,37.6,26.9,29.82,WNW,286,4.0,17.0,65,0.00,,SKC,0.00,0.00,VWS V14.01,2013-02-28 23:27:00,
2013-02-28 18:31:00,37.5,27.2,29.83,West,265,3.0,17.0,66,0.00,,SKC,0.00,0.00,VWS V14.01,2013-02-28 23:31:00,
2013-02-28 18:32:00,37.5,27.2,29.83,WSW,239,4.0,10.0,66,0.00,,SKC,0.00,0.00,VWS V14.01,2013-02-28 23:32:00,
2013-02-28 18:33:00,37.5,27.2,29.83,WSW,239,4.0,10.0,66,0.00,,SKC,0.00,0.00,VWS V14.01,2013-02-28 23:33:00,
2013-02-28 18:36:00,37.5,27.2,29.83,WSW,257,9.0,15.0,66,0.00,,SKC,0.00,0.00,VWS V14.01,2013-02-28 23:36:00,
2013-02-28 18:37:00,37.5,27.2,29.83,WSW,256,10.0,15.0,66,0.00,,SKC,0.00,0.00,VWS V14.01,2013-02-28 23:37:00,
2013-02-28 18:38:00,37.5,27.2,29.83,West,275,1.0,15.0,66,0.00,,SKC,0.00,0.00,VWS V14.01,2013-02-28 23:38:00,
2013-02-28 18:41:00,37.5,27.2,29.83,West,279,8.0,15.0,66,0.00,,SKC,0.00,0.00,VWS V14.01,2013-02-28 23:41:00,
2013-02-28 18:42:00,37.5,27.2,29.83,West,277,3.0,15.0,66,0.00,,SKC,0.00,0.00,VWS V14.01,2013-02-28 23:42:00,
2013-02-28 18:43:00,37.5,27.2,29.83,NNW,333,4.0,15.0,66,0.00,,SKC,0.00,0.00,VWS V14.01,2013-02-28 23:43:00,
2013-02-28 18:46:00,37.5,27.2,29.83,West,277,10.0,19.0,66,0.00,,SKC,0.00,0.00,VWS V14.01,2013-02-28 23:46:00,
2013-02-28 18:47:00,37.5,27.2,29.83,West,270,13.0,19.0,66,0.00,,SKC,0.00,0.00,VWS V14.01,2013-02-28 23:47:00,
2013-02-28 18:48:00,37.5,27.2,29.83,West,273,6.0,19.0,66,0.00,,SKC,0.00,0.00,VWS V14.01,2013-02-28 23:48:00,
2013-02-28 18:51:00,37.5,27.2,29.83,West,272,6.0,19.0,66,0.00,,SKC,0.00,0.00,VWS V14.01,2013-02-28 23:51:00,
2013-02-28 18:52:00,37.5,27.2,29.83,West,281,6.0,19.0,66,0.00,,SKC,0.00,0.00,VWS V14.01,2013-02-28 23:52:00,
2013-02-28 18:53:00,37.5,27.2,29.83,WNW,287,3.0,19.0,66,0.00,,SKC,0.00,0.00,VWS V14.01,2013-02-28 23:53:00,
2013-02-28 18:56:00,37.5,27.2,29.84,West,273,3.0,19.0,66,0.00,,SKC,0.00,0.00,VWS V14.01,2013-02-28 23:56:00,
2013-02-28 18:57:00,37.5,27.2,29.83,West,269,12.0,19.0,66,0.00,,SKC,0.00,0.00,VWS V14.01,2013-02-28 23:57:00,
2013-02-28 18:58:00,37.5,27.2,29.83,WSW,243,8.0,19.0,66,0.00,,SKC,0.00,0.00,VWS V14.01,2013-02-28 23:58:00,
2013-02-28 18:59:00,37.5,27.2,29.84,West,263,6.0,19.0,66,0.00,,SKC,0.00,0.00,VWS V14.01,2013-02-28 23:59:00,
2013-02-28 19:01:00,37.4,27.1,29.84,SW,225,9.0,9.0,66,0.00,,SKC,0.00,0.00,VWS V14.01,2013-03-01 00:01:00,
2013-02-28 19:02:00,37.5,27.2,29.84,WNW,288,7.0,14.0,66,0.00,,SKC,0.00,0.00,VWS V14.01,2013-03-01 00:02:00,
2013-02-28 19:03:00,37.4,27.1,29.84,West,261,4.0,14.0,66,0.00,,SKC,0.00,0.00,VWS V14.01,2013-03-01 00:03:00,
2013-02-28 19:04:00,37.4,27.5,29.84,West,265,7.0,14.0,67,0.00,,SKC,0.00,0.00,VWS V14.01,2013-03-01 00:04:00,
2013-02-28 19:06:00,37.4,27.5,29.84,West,263,6.0,14.0,67,0.00,,SKC,0.00,0.00,VWS V14.01,2013-03-01 00:06:00,
2013-02-28 19:07:00,37.4,27.1,29.84,WNW,298,5.0,14.0,66,0.00,,SKC,0.00,0.00,VWS V14.01,2013-03-01 00:07:00,
2013-02-28 19:08:00,37.4,27.1,29.84,West,268,6.0,14.0,66,0.00,,SKC,0.00,0.00,VWS V14.01,2013-03-01 00:08:00,
2013-02-28 19:09:00,37.4,27.1,29.84,WNW,283,7.0,14.0,66,0.00,,SKC,0.00,0.00,VWS V14.01,2013-03-01 00:09:00,
2013-02-28 19:12:00,37.4,27.1,29.84,WNW,295,10.0,14.0,66,0.00,,SKC,0.00,0.00,VWS V14.01,2013-03-01 00:12:00,
2013-02-28 19:13:00,37.4,27.5,29.84,NW,307,7.0,14.0,67,0.00,,SKC,0.00,0.00,VWS V14.01,2013-03-01 00:13:00,
2013-02-28 19:14:00,37.4,27.5,29.84,WNW,292,1.0,14.0,67,0.00,,SKC,0.00,0.00,VWS V14.01,2013-03-01 00:14:00,
2013-02-28 19:17:00,37.4,27.5,29.84,WNW,293,8.0,14.0,67,0.00,,SKC,0.00,0.00,VWS V14.01,2013-03-01 00:17:00,
2013-02-28 19:18:00,37.4,27.5,29.84,West,267,9.0,14.0,67,0.00,,SKC,0.00,0.00,VWS V14.01,2013-03-01 00:18:00,
2013-02-28 19:19:00,37.4,27.5,29.84,West,275,15.0,15.0,67,0.00,,SKC,0.00,0.00,VWS V14.01,2013-03-01 00:19:00,
2013-02-28 19:22:00,37.4,27.5,29.84,WSW,244,6.0,16.0,67,0.00,,SKC,0.00,0.00,VWS V14.01,2013-03-01 00:22:00,
2013-02-28 19:23:00,37.4,27.5,29.84,SW,221,8.0,16.0,67,0.00,,SKC,0.00,0.00,VWS V14.01,2013-03-01 00:23:00,
2013-02-28 19:24:00,37.4,27.5,29.84,WSW,247,11.0,16.0,67,0.00,,SKC,0.00,0.00,VWS V14.01,2013-03-01 00:24:00,
2013-02-28 19:27:00,37.5,27.5,29.84,WNW,282,11.0,18.0,67,0.00,,SKC,0.00,0.00,VWS V14.01,2013-03-01 00:27:00,
2013-02-28 19:28:00,37.5,27.2,29.84,WSW,250,9.0,18.0,66,0.00,,SKC,0.00,0.00,VWS V14.01,2013-03-01 00:28:00,
2013-02-28 19:30:00,37.5,27.2,29.84,WNW,302,11.0,18.0,66,0.00,,SKC,0.00,0.00,VWS V14.01,2013-03-01 00:30:00,
2013-02-28 19:32:00,37.4,27.5,29.85,West,261,6.0,8.0,67,0.00,,SKC,0.00,0.00,VWS V14.01,2013-03-01 00:32:00,
2013-02-28 19:33:00,37.4,27.5,29.84,West,263,7.0,10.0,67,0.00,,SKC,0.00,0.00,VWS V14.01,2013-03-01 00:33:00,
2013-02-28 19:35:00,37.4,27.5,29.84,West,274,7.0,11.0,67,0.00,,SKC,0.00,0.00,VWS V14.01,2013-03-01 00:35:00,
2013-02-28 19:37:00,37.4,27.5,29.84,WNW,296,4.0,11.0,67,0.00,,SKC,0.00,0.00,VWS V14.01,2013-03-01 00:37:00,
2013-02-28 19:38:00,37.4,27.5,29.84,WNW,300,10.0,11.0,67,0.00,,SKC,0.00,0.00,VWS V14.01,2013-03-01 00:38:00,
2013-02-28 19:39:00,37.4,27.5,29.84,West,261,12.0,12.0,67,0.00,,SKC,0.00,0.00,VWS V14.01,2013-03-01 00:39:00,
2013-02-28 19:41:00,37.5,27.2,29.84,WSW,253,9.0,17.0,66,0.00,,SKC,0.00,0.00,VWS V14.01,2013-03-01 00:41:00,
2013-02-28 19:42:00,37.5,27.5,29.85,WNW,298,11.0,17.0,67,0.00,,SKC,0.00,0.00,VWS V14.01,2013-03-01 00:42:00,
2013-02-28 19:43:00,37.5,27.2,29.84,West,281,8.0,17.0,66,0.00,,SKC,0.00,0.00,VWS V14.01,2013-03-01 00:43:00,
2013-02-28 19:44:00,37.5,27.2,29.84,WSW,258,4.0,17.0,66,0.00,,SKC,0.00,0.00,VWS V14.01,2013-03-01 00:44:00,
2013-02-28 19:46:00,37.5,27.2,29.85,SW,226,10.0,17.0,66,0.00,,SKC,0.00,0.00,VWS V14.01,2013-03-01 00:46:00,
2013-02-28 19:47:00,37.5,27.2,29.85,West,274,6.0,17.0,66,0.00,,SKC,0.00,0.00,VWS V14.01,2013-03-01 00:47:00,
2013-02-28 19:49:00,37.5,27.5,29.85,West,275,6.0,17.0,67,0.00,,SKC,0.00,0.00,VWS V14.01,2013-03-01 00:49:00,
2013-02-28 19:51:00,37.5,27.5,29.84,WSW,252,4.0,17.0,67,0.00,,SKC,0.00,0.00,VWS V14.01,2013-03-01 00:51:00,
2013-02-28 19:52:00,37.5,27.5,29.84,NW,305,10.0,17.0,67,0.00,,SKC,0.00,0.00,VWS V14.01,2013-03-01 00:52:00,
2013-02-28 19:54:00,37.5,27.5,29.84,West,259,9.0,17.0,67,0.00,,SKC,0.00,0.00,VWS V14.01,2013-03-01 00:54:00,
2013-02-28 19:56:00,37.5,27.5,29.84,West,266,6.0,17.0,67,0.00,,SKC,0.00,0.00,VWS V14.01,2013-03-01 00:56:00,
2013-02-28 19:58:00,37.5,27.5,29.85,West,259,4.0,17.0,67,0.00,,SKC,0.00,0.00,VWS V14.01,2013-03-01 00:58:00,
2013-02-28 19:59:00,37.5,27.5,29.84,WSW,251,6.0,17.0,67,0.00,,SKC,0.00,0.00,VWS V14.01,2013-03-01 00:59:00,
2013-02-28 20:01:00,37.5,27.5,29.85,NW,308,10.0,17.0,67,0.00,,SKC,0.00,0.00,VWS V14.01,2013-03-01 01:01:00,
2013-02-28 20:03:00,37.5,27.5,29.84,WNW,294,8.0,12.0,67,0.00,,SKC,0.00,0.00,VWS V14.01,2013-03-01 01:03:00,
2013-02-28 20:04:00,37.5,27.5,29.85,West,259,8.0,12.0,67,0.00,,SKC,0.00,0.00,VWS V14.01,2013-03-01 01:04:00,
2013-02-28 20:05:00,37.5,27.5,29.85,West,269,8.0,12.0,67,0.00,,SKC,0.00,0.00,VWS V14.01,2013-03-01 01:05:00,
2013-02-28 20:06:00,37.5,27.5,29.84,WSW,256,4.0,14.0,67,0.00,,SKC,0.00,0.00,VWS V14.01,2013-03-01 01:06:00,
2013-02-28 20:08:00,37.5,27.5,29.85,West,265,10.0,16.0,67,0.00,,SKC,0.00,0.00,VWS V14.01,2013-03-01 01:08:00,
2013-02-28 20:10:00,37.5,27.5,29.85,NNW,339,3.0,16.0,67,0.00,,SKC,0.00,0.00,VWS V14.01,2013-03-01 01:10:00,
2013-02-28 20:11:00,37.5,27.5,29.85,SW,234,3.0,16.0,67,0.00,,SKC,0.00,0.00,VWS V14.01,2013-03-01 01:11:00,
2013-02-28 20:13:00,37.5,27.5,29.85,North,5,2.0,16.0,67,0.00,,SKC,0.00,0.00,VWS V14.01,2013-03-01 01:13:00,
2013-02-28 20:15:00,37.5,27.5,29.85,WSW,254,5.0,16.0,67,0.00,,SKC,0.00,0.00,VWS V14.01,2013-03-01 01:15:00,
2013-02-28 20:16:00,37.5,27.5,29.85,WNW,283,3.0,16.0,67,0.00,,SKC,0.00,0.00,VWS V14.01,2013-03-01 01:16:00,
2013-02-28 20:19:00,37.5,27.5,29.85,WNW,283,10.0,16.0,67,0.00,,SKC,0.00,0.00,VWS V14.01,2013-03-01 01:19:00,
2013-02-28 20:20:00,37.5,27.5,29.85,West,279,4.0,16.0,67,0.00,,SKC,0.00,0.00,VWS V14.01,2013-03-01 01:20:00,
2013-02-28 20:22:00,37.5,27.5,29.85,West,269,6.0,16.0,67,0.00,,SKC,0.00,0.00,VWS V14.01,2013-03-01 01:22:00,
2013-02-28 20:24:00,37.5,27.5,29.85,NW,312,9.0,16.0,67,0.00,,SKC,0.00,0.00,VWS V14.01,2013-03-01 01:24:00,
2013-02-28 20:25:00,37.5,27.5,29.85,West,277,7.0,16.0,67,0.00,,SKC,0.00,0.00,VWS V14.01,2013-03-01 01:25:00,
2013-02-28 20:27:00,37.5,27.5,29.85,WNW,290,10.0,16.0,67,0.00,,SKC,0.00,0.00,VWS V14.01,2013-03-01 01:27:00,
2013-02-28 20:30:00,37.5,27.5,29.85,WNW,285,3.0,16.0,67,0.00,,SKC,0.00,0.00,VWS V14.01,2013-03-01 01:30:00,
2013-02-28 20:31:00,37.5,27.5,29.85,West,260,8.0,16.0,67,0.00,,SKC,0.00,0.00,VWS V14.01,2013-03-01 01:31:00,
2013-02-28 20:32:00,37.5,27.5,29.84,SW,229,3.0,13.0,67,0.00,,SKC,0.00,0.00,VWS V14.01,2013-03-01 01:32:00,
2013-02-28 20:35:00,37.5,27.5,29.85,West,261,5.0,13.0,67,0.00,,SKC,0.00,0.00,VWS V14.01,2013-03-01 01:35:00,
2013-02-28 20:36:00,37.5,27.5,29.85,NNW,340,5.0,13.0,67,0.00,,SKC,0.00,0.00,VWS V14.01,2013-03-01 01:36:00,
2013-02-28 20:38:00,37.5,27.9,29.84,West,275,2.0,13.0,68,0.00,,SKC,0.00,0.00,VWS V14.01,2013-03-01 01:38:00,
2013-02-28 20:40:00,37.5,27.5,29.84,WSW,250,5.0,13.0,67,0.00,,SKC,0.00,0.00,VWS V14.01,2013-03-01 01:40:00,
2013-02-28 20:41:00,37.5,27.9,29.84,SSW,213,10.0,13.0,68,0.00,,SKC,0.00,0.00,VWS V14.01,2013-03-01 01:41:00,
2013-02-28 20:43:00,37.5,27.9,29.84,West,269,7.0,13.0,68,0.00,,SKC,0.00,0.00,VWS V14.01,2013-03-01 01:43:00,
2013-02-28 20:45:00,37.5,27.9,29.85,WSW,258,10.0,15.0,68,0.00,,SKC,0.00,0.00,VWS V14.01,2013-03-01 01:45:00,
2013-02-28 20:46:00,37.5,27.5,29.84,NW,320,7.0,15.0,67,0.00,,SKC,0.00,0.00,VWS V14.01,2013-03-01 01:46:00,
2013-02-28 20:48:00,37.5,27.5,29.85,West,273,3.0,15.0,67,0.00,,SKC,0.00,0.00,VWS V14.01,2013-03-01 01:48:00,
2013-02-28 20:50:00,37.5,27.9,29.85,NW,308,4.0,15.0,68,0.00,,SKC,0.00,0.00,VWS V14.01,2013-03-01 01:50:00,
2013-02-28 20:51:00,37.5,27.9,29.85,WSW,255,4.0,15.0,68,0.00,,SKC,0.00,0.00,VWS V14.01,2013-03-01 01:51:00,
2013-02-28 20:53:00,37.5,27.5,29.85,West,270,5.0,15.0,67,0.00,,SKC,0.00,0.00,VWS V14.01,2013-03-01 01:53:00,
2013-02-28 20:56:00,37.5,27.9,29.85,WNW,298,3.0,15.0,68,0.00,,SKC,0.00,0.00,VWS V14.01,2013-03-01 01:56:00,
2013-02-28 20:58:00,37.5,27.9,29.85,WNW,292,2.0,15.0,68,0.00,,SKC,0.00,0.00,VWS V14.01,2013-03-01 01:58:00,
2013-02-28 21:01:00,37.5,27.5,29.85,WSW,252,3.0,15.0,67,0.00,,SKC,0.00,0.00,VWS V14.01,2013-03-01 02:01:00,
2013-02-28 21:03:00,37.5,27.9,29.85,SW,236,6.0,8.0,68,0.00,,SKC,0.00,0.00,VWS V14.01,2013-03-01 02:03:00,
2013-02-28 21:06:00,37.5,27.5,29.85,West,275,4.0,8.0,67,0.00,,SKC,0.00,0.00,VWS V14.01,2013-03-01 02:06:00,
2013-02-28 21:07:00,37.5,27.5,29.85,WSW,254,2.0,8.0,67,0.00,,SKC,0.00,0.00,VWS V14.01,2013-03-01 02:07:00,
2013-02-28 21:08:00,37.5,27.5,29.85,WSW,254,4.0,8.0,67,0.00,,SKC,0.00,0.00,VWS V14.01,2013-03-01 02:08:00,
2013-02-28 21:11:00,37.6,27.6,29.85,WSW,258,7.0,10.0,67,0.00,,SKC,0.00,0.00,VWS V14.01,2013-03-01 02:11:00,
2013-02-28 21:12:00,37.6,27.3,29.85,WNW,285,7.0,10.0,66,0.00,,SKC,0.00,0.00,VWS V14.01,2013-03-01 02:12:00,
2013-02-28 21:13:00,37.6,27.3,29.85,West,263,4.0,10.0,66,0.00,,SKC,0.00,0.00,VWS V14.01,2013-03-01 02:13:00,
2013-02-28 21:16:00,37.7,27.4,29.85,NW,309,7.0,10.0,66,0.00,,SKC,0.00,0.00,VWS V14.01,2013-03-01 02:16:00,
2013-02-28 21:17:00,37.7,27.4,29.85,SW,232,4.0,10.0,66,0.00,,SKC,0.00,0.00,VWS V14.01,2013-03-01 02:17:00,
2013-02-28 21:18:00,37.7,27.8,29.85,West,269,9.0,10.0,67,0.00,,SKC,0.00,0.00,VWS V14.01,2013-03-01 02:18:00,
2013-02-28 21:21:00,37.7,27.4,29.85,West,261,6.0,13.0,66,0.00,,SKC,0.00,0.00,VWS V14.01,2013-03-01 02:21:00,
2013-02-28 21:22:00,37.7,27.4,29.84,NNW,332,3.0,13.0,66,0.00,,SKC,0.00,0.00,VWS V14.01,2013-03-01 02:22:00,
2013-02-28 21:23:00,37.8,27.5,29.84,SW,235,5.0,13.0,66,0.00,,SKC,0.00,0.00,VWS V14.01,2013-03-01 02:23:00,
2013-02-28 21:24:00,37.8,27.5,29.85,WSW,255,5.0,13.0,66,0.00,,SKC,0.00,0.00,VWS V14.01,2013-03-01 02:24:00,
2013-02-28 21:26:00,37.8,27.5,29.85,WNW,300,6.0,13.0,66,0.00,,SKC,0.00,0.00,VWS V14.01,2013-03-01 02:26:00,
2013-02-28 21:27:00,37.8,27.1,29.85,WNW,302,4.0,13.0,65,0.00,,SKC,0.00,0.00,VWS V14.01,2013-03-01 02:27:00,
2013-02-28 21:28:00,37.8,27.1,29.85,WNW,292,5.0,13.0,65,0.00,,SKC,0.00,0.00,VWS V14.01,2013-03-01 02:28:00,
2013-02-28 21:29:00,37.8,27.1,29.85,WSW,257,3.0,13.0,65,0.00,,SKC,0.00,0.00,VWS V14.01,2013-03-01 02:29:00,
2013-02-28 21:31:00,37.8,27.1,29.85,West,276,2.0,2.0,65,0.00,,SKC,0.00,0.00,VWS V14.01,2013-03-01 02:31:00,
2013-02-28 21:32:00,37.9,27.2,29.84,WNW,288,8.0,10.0,65,0.00,,SKC,0.00,0.00,VWS V14.01,2013-03-01 02:32:00,
2013-02-28 21:33:00,37.9,27.2,29.84,NNW,332,3.0,10.0,65,0.00,,SKC,0.00,0.00,VWS V14.01,2013-03-01 02:33:00,
2013-02-28 21:34:00,37.9,27.2,29.84,SW,215,4.0,10.0,65,0.00,,SKC,0.00,0.00,VWS V14.01,2013-03-01 02:34:00,
2013-02-28 21:36:00,37.9,27.2,29.85,WSW,242,3.0,10.0,65,0.00,,SKC,0.00,0.00,VWS V14.01,2013-03-01 02:36:00,
2013-02-28 21:37:00,37.9,27.2,29.84,West,267,7.0,10.0,65,0.00,,SKC,0.00,0.00,VWS V14.01,2013-03-01 02:37:00,
2013-02-28 21:38:00,37.9,27.2,29.84,WNW,295,5.0,10.0,65,0.00,,SKC,0.00,0.00,VWS V14.01,2013-03-01 02:38:00,
2013-02-28 21:39:00,37.9,27.2,29.84,West,260,4.0,10.0,65,0.00,,SKC,0.00,0.00,VWS V14.01,2013-03-01 02:39:00,
2013-02-28 21:41:00,37.9,27.2,29.85,WNW,298,3.0,10.0,65,0.00,,SKC,0.00,0.00,VWS V14.01,2013-03-01 02:41:00,
2013-02-28 21:43:00,37.9,27.2,29.85,West,272,9.0,10.0,65,0.00,,SKC,0.00,0.00,VWS V14.01,2013-03-01 02:43:00,
2013-02-28 21:44:00,37.9,27.2,29.84,West,264,5.0,10.0,65,0.00,,SKC,0.00,0.00,VWS V14.01,2013-03-01 02:44:00,
2013-02-28 21:46:00,37.9,27.2,29.84,West,274,2.0,10.0,65,0.00,,SKC,0.00,0.00,VWS V14.01,2013-03-01 02:46:00,
2013-02-28 21:48:00,37.9,27.2,29.85,West,274,0.0,10.0,65,0.00,,SKC,0.00,0.00,VWS V14.01,2013-03-01 02:48:00,
2013-02-28 21:49:00,37.9,27.2,29.85,WNW,295,2.0,10.0,65,0.00,,SKC,0.00,0.00,VWS V14.01,2013-03-01 02:49:00,
2013-02-28 21:52:00,37.9,27.2,29.85,West,271,5.0,10.0,65,0.00,,SKC,0.00,0.00,VWS V14.01,2013-03-01 02:52:00,
2013-02-28 21:53:00,37.9,27.2,29.85,NW,304,0.0,10.0,65,0.00,,SKC,0.00,0.00,VWS V14.01,2013-03-01 02:53:00,
2013-02-28 21:54:00,37.9,27.2,29.85,WNW,286,2.0,10.0,65,0.00,,SKC,0.00,0.00,VWS V14.01,2013-03-01 02:54:00,
2013-02-28 21:57:00,37.9,27.2,29.85,West,280,6.0,10.0,65,0.00,,SKC,0.00,0.00,VWS V14.01,2013-03-01 02:57:00,
2013-02-28 21:58:00,37.9,27.2,29.85,West,265,5.0,10.0,65,0.00,,SKC,0.00,0.00,VWS V14.01,2013-03-01 02:58:00,
2013-02-28 22:00:00,38.0,27.3,29.85,WSW,254,5.0,10.0,65,0.00,,SKC,0.00,0.00,VWS V14.01,2013-03-01 03:00:00,
2013-02-28 22:02:00,37.9,27.2,29.85,WNW,290,7.0,7.0,65,0.00,,SKC,0.00,0.00,VWS V14.01,2013-03-01 03:02:00,
2013-02-28 22:03:00,38.0,27.3,29.85,WSW,244,5.0,9.0,65,0.00,,SKC,0.00,0.00,VWS V14.01,2013-03-01 03:03:00,
2013-02-28 22:05:00,38.0,27.3,29.85,NNW,342,9.0,9.0,65,0.00,,SKC,0.00,0.00,VWS V14.01,2013-03-01 03:05:00,
2013-02-28 22:07:00,38.0,26.9,29.85,WNW,285,2.0,9.0,64,0.00,,SKC,0.00,0.00,VWS V14.01,2013-03-01 03:07:00,
2013-02-28 22:08:00,38.0,26.9,29.85,WNW,287,5.0,9.0,64,0.00,,SKC,0.00,0.00,VWS V14.01,2013-03-01 03:08:00,
2013-02-28 22:10:00,38.0,26.9,29.85,WNW,287,1.0,9.0,64,0.00,,SKC,0.00,0.00,VWS V14.01,2013-03-01 03:10:00,
2013-02-28 22:12:00,38.1,27.0,29.85,WNW,300,10.0,10.0,64,0.00,,SKC,0.00,0.00,VWS V14.01,2013-03-01 03:12:00,
2013-02-28 22:13:00,38.1,27.0,29.85,West,263,4.0,10.0,64,0.00,,SKC,0.00,0.00,VWS V14.01,2013-03-01 03:13:00,
2013-02-28 22:15:00,38.1,27.0,29.85,NNW,331,2.0,13.0,64,0.00,,SKC,0.00,0.00,VWS V14.01,2013-03-01 03:15:00,
2013-02-28 22:17:00,38.2,27.5,29.85,SW,229,5.0,13.0,65,0.00,,SKC,0.00,0.00,VWS V14.01,2013-03-01 03:17:00,
2013-02-28 22:18:00,38.1,27.4,29.85,WNW,289,6.0,13.0,65,0.00,,SKC,0.00,0.00,VWS V14.01,2013-03-01 03:18:00,
2013-02-28 22:19:00,38.1,27.0,29.85,NW,316,2.0,13.0,64,0.00,,SKC,0.00,0.00,VWS V14.01,2013-03-01 03:19:00,
2013-02-28 22:20:00,38.1,27.0,29.85,NNW,334,8.0,13.0,64,0.00,,SKC,0.00,0.00,VWS V14.01,2013-03-01 03:20:00,
2013-02-28 22:22:00,38.1,27.4,29.85,NNW,334,1.0,13.0,65,0.00,,SKC,0.00,0.00,VWS V14.01,2013-03-01 03:22:00,
2013-02-28 22:23:00,38.1,27.4,29.85,NNW,334,0.0,13.0,65,0.00,,SKC,0.00,0.00,VWS V14.01,2013-03-01 03:23:00,
2013-02-28 22:24:00,38.1,27.4,29.85,NNW,335,2.0,13.0,65,0.00,,SKC,0.00,0.00,VWS V14.01,2013-03-01 03:24:00,
2013-02-28 22:25:00,38.1,27.4,29.85,NW,323,5.0,13.0,65,0.00,,SKC,0.00,0.00,VWS V14.01,2013-03-01 03:25:00,
2013-02-28 22:27:00,38.1,27.0,29.85,WNW,284,0.0,13.0,64,0.00,,SKC,0.00,0.00,VWS V14.01,2013-03-01 03:27:00,
2013-02-28 22:28:00,38.1,27.0,29.85,West,271,3.0,13.0,64,0.00,,SKC,0.00,0.00,VWS V14.01,2013-03-01 03:28:00,
2013-02-28 22:29:00,38.1,27.4,29.85,West,271,3.0,13.0,65,0.00,,SKC,0.00,0.00,VWS V14.01,2013-03-01 03:29:00,
2013-02-28 22:30:00,38.1,27.0,29.85,WNW,296,7.0,13.0,64,0.00,,SKC,0.00,0.00,VWS V14.01,2013-03-01 03:30:00,
2013-02-28 22:33:00,38.2,27.1,29.85,WSW,257,5.0,6.0,64,0.00,,SKC,0.00,0.00,VWS V14.01,2013-03-01 03:33:00,
2013-02-28 22:34:00,38.2,27.1,29.85,SSW,213,2.0,7.0,64,0.00,,SKC,0.00,0.00,VWS V14.01,2013-03-01 03:34:00,
2013-02-28 22:35:00,38.2,27.1,29.85,WNW,294,16.0,16.0,64,0.00,,SKC,0.00,0.00,VWS V14.01,2013-03-01 03:35:00,
2013-02-28 22:38:00,38.2,27.5,29.85,WNW,301,7.0,16.0,65,0.00,,SKC,0.00,0.00,VWS V14.01,2013-03-01 03:38:00,
2013-02-28 22:39:00,38.2,27.1,29.85,NW,307,7.0,16.0,64,0.00,,SKC,0.00,0.00,VWS V14.01,2013-03-01 03:39:00,
2013-02-28 22:41:00,38.2,27.5,29.85,North,355,9.0,16.0,65,0.00,,SKC,0.00,0.00,VWS V14.01,2013-03-01 03:41:00,
2013-02-28 22:43:00,38.2,27.5,29.84,West,272,7.0,16.0,65,0.00,,SKC,0.00,0.00,VWS V14.01,2013-03-01 03:43:00,
2013-02-28 22:44:00,38.2,27.5,29.84,NNE,29,9.0,16.0,65,0.00,,SKC,0.00,0.00,VWS V14.01,2013-03-01 03:44:00,
2013-02-28 22:46:00,38.3,27.6,29.84,WNW,296,5.0,16.0,65,0.00,,SKC,0.00,0.00,VWS V14.01,2013-03-01 03:46:00,
2013-02-28 22:48:00,38.2,27.5,29.84,NW,317,2.0,16.0,65,0.00,,SKC,0.00,0.00,VWS V14.01,2013-03-01 03:48:00,
2013-02-28 22:49:00,38.3,27.6,29.85,WNW,299,3.0,16.0,65,0.00,,SKC,0.00,0.00,VWS V14.01,2013-03-01 03:49:00,
2013-02-28 22:51:00,38.2,27.5,29.85,NW,317,8.0,16.0,65,0.00,,SKC,0.00,0.00,VWS V14.01,2013-03-01 03:51:00,
2013-02-28 22:53:00,38.2,27.5,29.85,WNW,302,4.0,16.0,65,0.00,,SKC,0.00,0.00,VWS V14.01,2013-03-01 03:53:00,
2013-02-28 22:54:00,38.2,27.5,29.85,NW,315,4.0,16.0,65,0.00,,SKC,0.00,0.00,VWS V14.01,2013-03-01 03:54:00,
2013-02-28 22:56:00,38.2,27.5,29.85,NNW,342,9.0,16.0,65,0.00,,SKC,0.00,0.00,VWS V14.01,2013-03-01 03:56:00,
2013-02-28 22:58:00,38.2,27.5,29.85,WNW,302,2.0,16.0,65,0.00,,SKC,0.00,0.00,VWS V14.01,2013-03-01 03:58:00,
2013-02-28 22:59:00,38.2,27.5,29.85,NW,311,0.0,16.0,65,0.00,,SKC,0.00,0.00,VWS V14.01,2013-03-01 03:59:00,
2013-02-28 23:00:00,38.2,27.5,29.85,NW,312,1.0,16.0,65,0.00,,SKC,0.00,0.00,VWS V14.01,2013-03-01 04:00:00,
2013-02-28 23:01:00,38.2,27.5,29.85,NNW,340,9.0,9.0,65,0.00,,SKC,0.00,0.00,VWS V14.01,2013-03-01 04:01:00,
2013-02-28 23:03:00,38.2,27.9,29.85,NW,324,6.0,9.0,66,0.00,,SKC,0.00,0.00,VWS V14.01,2013-03-01 04:03:00,
2013-02-28 23:05:00,38.1,27.8,29.85,WSW,240,5.0,9.0,66,0.00,,SKC,0.00,0.00,VWS V14.01,2013-03-01 04:05:00,
2013-02-28 23:06:00,38.1,27.8,29.85,North,355,6.0,9.0,66,0.00,,SKC,0.00,0.00,VWS V14.01,2013-03-01 04:06:00,
2013-02-28 23:08:00,38.1,27.8,29.85,SW,228,3.0,9.0,66,0.00,,SKC,0.00,0.00,VWS V14.01,2013-03-01 04:08:00,
2013-02-28 23:10:00,38.1,27.8,29.85,West,281,10.0,10.0,66,0.00,,SKC,0.00,0.00,VWS V14.01,2013-03-01 04:10:00,
2013-02-28 23:12:00,38.1,27.8,29.85,WNW,297,6.0,11.0,66,0.00,,SKC,0.00,0.00,VWS V14.01,2013-03-01 04:12:00,
2013-02-28 23:13:00,38.1,27.8,29.85,West,266,5.0,11.0,66,0.00,,SKC,0.00,0.00,VWS V14.01,2013-03-01 04:13:00,
2013-02-28 23:15:00,38.1,27.8,29.85,WNW,286,5.0,14.0,66,0.00,,SKC,0.00,0.00,VWS V14.01,2013-03-01 04:15:00,
2013-02-28 23:17:00,38.1,27.8,29.85,West,268,7.0,14.0,66,0.00,,SKC,0.00,0.00,VWS V14.01,2013-03-01 04:17:00,
2013-02-28 23:18:00,38.1,27.8,29.85,West,263,7.0,14.0,66,0.00,,SKC,0.00,0.00,VWS V14.01,2013-03-01 04:18:00,
2013-02-28 23:20:00,38.2,27.9,29.85,NNW,338,4.0,14.0,66,0.00,,SKC,0.00,0.00,VWS V14.01,2013-03-01 04:20:00,
2013-02-28 23:22:00,38.1,27.8,29.86,NW,307,2.0,14.0,66,0.00,,SKC,0.00,0.00,VWS V14.01,2013-03-01 04:22:00,
2013-02-28 23:23:00,38.1,27.8,29.85,NW,313,3.0,14.0,66,0.00,,SKC,0.00,0.00,VWS V14.01,2013-03-01 04:23:00,
2013-02-28 23:25:00,38.1,27.8,29.86,WNW,298,4.0,14.0,66,0.00,,SKC,0.00,0.00,VWS V14.01,2013-03-01 04:25:00,
2013-02-28 23:27:00,38.1,27.8,29.86,WNW,299,4.0,14.0,66,0.00,,SKC,0.00,0.00,VWS V14.01,2013-03-01 04:27:00,
2013-02-28 23:28:00,38.1,27.8,29.86,WNW,286,2.0,14.0,66,0.00,,SKC,0.00,0.00,VWS V14.01,2013-03-01 04:28:00,
2013-02-28 23:30:00,38.0,27.7,29.86,NNW,329,4.0,14.0,66,0.00,,SKC,0.00,0.00,VWS V14.01,2013-03-01 04:30:00,
2013-02-28 23:31:00,38.1,27.8,29.86,NW,306,6.0,14.0,66,0.00,,SKC,0.00,0.00,VWS V14.01,2013-03-01 04:31:00,
2013-02-28 23:32:00,38.0,27.7,29.85,WNW,292,7.0,9.0,66,0.00,,SKC,0.00,0.00,VWS V14.01,2013-03-01 04:32:00,
2013-02-28 23:34:00,38.0,27.7,29.85,NW,317,2.0,9.0,66,0.00,,SKC,0.00,0.00,VWS V14.01,2013-03-01 04:34:00,
2013-02-28 23:35:00,38.0,27.7,29.85,WSW,250,4.0,11.0,66,0.00,,SKC,0.00,0.00,VWS V14.01,2013-03-01 04:35:00,
2013-02-28 23:36:00,38.0,27.7,29.85,West,265,9.0,11.0,66,0.00,,SKC,0.00,0.00,VWS V14.01,2013-03-01 04:36:00,
2013-02-28 23:38:00,38.0,27.7,29.85,West,275,6.0,14.0,66,0.00,,SKC,0.00,0.00,VWS V14.01,2013-03-01 04:38:00,
2013-02-28 23:39:00,38.0,27.7,29.85,NW,312,10.0,17.0,66,0.00,,SKC,0.00,0.00,VWS V14.01,2013-03-01 04:39:00,
2013-02-28 23:41:00,38.1,27.8,29.85,West,279,8.0,17.0,66,0.00,,SKC,0.00,0.00,VWS V14.01,2013-03-01 04:41:00,
2013-02-28 23:43:00,38.1,27.8,29.84,WSW,254,6.0,17.0,66,0.00,,SKC,0.00,0.00,VWS V14.01,2013-03-01 04:43:00,
2013-02-28 23:44:00,38.1,27.8,29.84,West,279,5.0,17.0,66,0.00,,SKC,0.00,0.00,VWS V14.01,2013-03-01 04:44:00,
2013-02-28 23:46:00,38.1,27.8,29.84,WNW,301,6.0,17.0,66,0.00,,SKC,0.00,0.00,VWS V14.01,2013-03-01 04:46:00,
2013-02-28 23:48:00,38.1,27.8,29.84,West,273,8.0,17.0,66,0.00,,SKC,0.00,0.00,VWS V14.01,2013-03-01 04:48:00,
2013-02-28 23:49:00,38.1,27.8,29.85,West,279,8.0,17.0,66,0.00,,SKC,0.00,0.00,VWS V14.01,2013-03-01 04:49:00,
2013-02-28 23:51:00,38.0,27.7,29.84,NNW,333,1.0,17.0,66,0.00,,SKC,0.00,0.00,VWS V14.01,2013-03-01 04:51:00,
2013-02-28 23:54:00,38.0,28.0,29.84,NW,314,8.0,17.0,67,0.00,,SKC,0.00,0.00,VWS V14.01,2013-03-01 04:54:00,
2013-02-28 23:56:00,38.0,27.7,29.84,NW,313,7.0,17.0,66,0.00,,SKC,0.00,0.00,VWS V14.01,2013-03-01 04:56:00,
2013-02-28 23:59:00,38.0,28.0,29.84,WSW,252,3.0,17.0,67,0.00,,SKC,0.00,0.00,VWS V14.01,2013-03-01 04:59:00,